Time,TemperatureF,DewpointF,PressureIn,WindDirection,WindDirectionDegrees,WindSpeedMPH,WindSpeedGustMPH,Humidity,HourlyPrecipIn,Conditions,Clouds,dailyrainin,SoftwareType,DateUTC
2013-01-26 00:00:00,18.9,-3.1,29.94,SSW,211,0.0,0.0,37,0.00,,---,0.00,VWS V14.01,2013-01-26 05:00:00,
2013-01-26 00:02:00,18.7,-2.7,29.94,SSW,211,0.0,0.0,38,0.00,,---,0.00,VWS V14.01,2013-01-26 05:02:00,
2013-01-26 00:05:00,18.3,-2.5,29.91,SSW,211,0.0,0.0,39,0.00,,---,0.00,VWS V14.01,2013-01-26 05:05:00,
2013-01-26 00:07:00,18.1,-2.1,29.91,SSW,211,0.0,0.0,40,0.00,,---,0.00,VWS V14.01,2013-01-26 05:07:00,
2013-01-26 00:10:00,18.1,-2.1,29.91,SSW,211,0.0,0.0,40,0.00,,---,0.00,VWS V14.01,2013-01-26 05:10:00,
2013-01-26 00:12:00,18.1,-1.6,29.91,SSW,211,0.0,0.0,41,0.00,,---,0.00,VWS V14.01,2013-01-26 05:12:00,
2013-01-26 00:15:00,18.3,-2.0,29.91,SSW,211,0.0,0.0,40,0.00,,---,0.00,VWS V14.01,2013-01-26 05:15:00,
2013-01-26 00:18:00,18.3,-2.0,29.91,SSW,211,0.0,0.0,40,0.00,,---,0.00,VWS V14.01,2013-01-26 05:18:00,
2013-01-26 00:20:00,18.3,-2.0,29.91,SSW,211,0.0,0.0,40,0.00,,---,0.00,VWS V14.01,2013-01-26 05:20:00,
2013-01-26 00:21:00,18.3,-2.0,29.91,SSW,211,0.0,0.0,40,0.00,,---,0.00,VWS V14.01,2013-01-26 05:21:00,
2013-01-26 00:23:00,18.3,-2.5,29.91,SSW,211,0.0,0.0,39,0.00,,---,0.00,VWS V14.01,2013-01-26 05:23:00,
2013-01-26 00:25:00,18.3,-2.5,29.91,SSW,211,0.0,0.0,39,0.00,,---,0.00,VWS V14.01,2013-01-26 05:25:00,
2013-01-26 00:26:00,18.3,-2.5,29.91,SSW,211,0.0,0.0,39,0.00,,---,0.00,VWS V14.01,2013-01-26 05:26:00,
2013-01-26 00:28:00,18.1,-2.6,29.91,SSW,211,0.0,0.0,39,0.00,,---,0.00,VWS V14.01,2013-01-26 05:28:00,
2013-01-26 00:30:00,18.0,-3.3,29.91,SSW,211,0.0,0.0,38,0.00,,---,0.00,VWS V14.01,2013-01-26 05:30:00,
2013-01-26 00:31:00,18.0,-3.3,29.91,SSW,211,0.0,0.0,38,0.00,,---,0.00,VWS V14.01,2013-01-26 05:31:00,
2013-01-26 00:32:00,17.8,-4.1,29.91,SSW,211,0.0,0.0,37,0.00,,---,0.00,VWS V14.01,2013-01-26 05:32:00,
2013-01-26 00:35:00,17.6,-4.8,29.91,SSW,211,0.0,0.0,36,0.00,,---,0.00,VWS V14.01,2013-01-26 05:35:00,
2013-01-26 00:36:00,17.4,-5.0,29.91,SSW,211,0.0,0.0,36,0.00,,---,0.00,VWS V14.01,2013-01-26 05:36:00,
2013-01-26 00:37:00,17.1,-5.9,29.91,SSW,211,0.0,0.0,35,0.00,,---,0.00,VWS V14.01,2013-01-26 05:37:00,
2013-01-26 00:40:00,16.7,-6.2,29.91,SSW,211,0.0,0.0,35,0.00,,---,0.00,VWS V14.01,2013-01-26 05:40:00,
2013-01-26 00:41:00,16.7,-6.2,29.91,SSW,211,0.0,0.0,35,0.00,,---,0.00,VWS V14.01,2013-01-26 05:41:00,
2013-01-26 00:43:00,16.5,-6.3,29.91,SSW,211,0.0,0.0,35,0.00,,---,0.00,VWS V14.01,2013-01-26 05:43:00,
2013-01-26 00:46:00,16.0,-6.8,29.91,SSW,211,0.0,0.0,35,0.00,,---,0.00,VWS V14.01,2013-01-26 05:46:00,
2013-01-26 00:48:00,15.4,-6.7,29.91,SSW,211,0.0,0.0,36,0.00,,---,0.00,VWS V14.01,2013-01-26 05:48:00,
2013-01-26 00:51:00,15.1,-6.5,29.91,SSW,211,0.0,0.0,37,0.00,,---,0.00,VWS V14.01,2013-01-26 05:51:00,
2013-01-26 00:53:00,14.9,-6.7,29.91,WNW,296,0.0,0.0,37,0.00,,---,0.00,VWS V14.01,2013-01-26 05:53:00,
2013-01-26 00:56:00,14.5,-6.4,29.91,WNW,296,0.0,0.0,38,0.00,,---,0.00,VWS V14.01,2013-01-26 05:56:00,
2013-01-26 00:58:00,14.5,-6.4,29.91,WNW,296,0.0,0.0,38,0.00,,---,0.00,VWS V14.01,2013-01-26 05:58:00,
2013-01-26 01:01:00,14.4,-6.6,29.91,WNW,296,0.0,0.0,38,0.00,,---,0.00,VWS V14.01,2013-01-26 06:01:00,
2013-01-26 01:03:00,14.4,-6.6,29.91,WNW,296,0.0,0.0,38,0.00,,---,0.00,VWS V14.01,2013-01-26 06:03:00,
2013-01-26 01:06:00,14.4,-7.1,29.91,WNW,296,0.0,0.0,37,0.00,,---,0.00,VWS V14.01,2013-01-26 06:06:00,
2013-01-26 01:08:00,14.4,-7.1,29.91,WNW,296,0.0,0.0,37,0.00,,---,0.00,VWS V14.01,2013-01-26 06:08:00,
2013-01-26 01:11:00,14.5,-7.0,29.91,WNW,296,0.0,0.0,37,0.00,,---,0.00,VWS V14.01,2013-01-26 06:11:00,
2013-01-26 01:13:00,14.5,-7.0,29.91,WNW,296,0.0,0.0,37,0.00,,---,0.00,VWS V14.01,2013-01-26 06:13:00,
2013-01-26 01:16:00,14.5,-7.0,29.91,WNW,296,0.0,0.0,37,0.00,,---,0.00,VWS V14.01,2013-01-26 06:16:00,
2013-01-26 01:18:00,14.5,-7.0,29.91,WNW,296,0.0,0.0,37,0.00,,---,0.00,VWS V14.01,2013-01-26 06:18:00,
2013-01-26 01:21:00,14.4,-7.1,29.91,WNW,296,0.0,0.0,37,0.00,,---,0.00,VWS V14.01,2013-01-26 06:21:00,
2013-01-26 01:22:00,14.4,-7.1,29.91,WNW,296,0.0,0.0,37,0.00,,---,0.00,VWS V14.01,2013-01-26 06:22:00,
2013-01-26 01:23:00,14.4,-7.1,29.91,WNW,296,0.0,0.0,37,0.00,,---,0.00,VWS V14.01,2013-01-26 06:23:00,
2013-01-26 01:26:00,14.4,-7.1,29.91,WNW,296,0.0,0.0,37,0.00,,---,0.00,VWS V14.01,2013-01-26 06:26:00,
2013-01-26 01:27:00,14.2,-7.3,29.91,WNW,296,0.0,0.0,37,0.00,,---,0.00,VWS V14.01,2013-01-26 06:27:00,
2013-01-26 01:28:00,14.2,-7.9,29.91,WNW,296,0.0,0.0,36,0.00,,---,0.00,VWS V14.01,2013-01-26 06:28:00,
2013-01-26 01:31:00,14.0,-8.0,29.91,WNW,296,0.0,0.0,36,0.00,,---,0.00,VWS V14.01,2013-01-26 06:31:00,
2013-01-26 01:32:00,14.0,-8.0,29.91,WNW,296,0.0,0.0,36,0.00,,---,0.00,VWS V14.01,2013-01-26 06:32:00,
2013-01-26 01:34:00,13.8,-8.2,29.91,WNW,296,0.0,0.0,36,0.00,,---,0.00,VWS V14.01,2013-01-26 06:34:00,
2013-01-26 01:36:00,13.8,-8.2,29.94,WNW,296,0.0,0.0,36,0.00,,---,0.00,VWS V14.01,2013-01-26 06:36:00,
2013-01-26 01:37:00,13.8,-8.2,29.94,WNW,296,0.0,0.0,36,0.00,,---,0.00,VWS V14.01,2013-01-26 06:37:00,
2013-01-26 01:39:00,13.8,-8.2,29.94,WNW,296,0.0,0.0,36,0.00,,---,0.00,VWS V14.01,2013-01-26 06:39:00,
2013-01-26 01:42:00,13.8,-8.2,29.94,WNW,296,0.0,0.0,36,0.00,,---,0.00,VWS V14.01,2013-01-26 06:42:00,
2013-01-26 01:44:00,13.6,-8.4,29.94,WNW,296,0.0,0.0,36,0.00,,---,0.00,VWS V14.01,2013-01-26 06:44:00,
2013-01-26 01:47:00,13.5,-8.5,29.94,WNW,296,0.0,0.0,36,0.00,,---,0.00,VWS V14.01,2013-01-26 06:47:00,
2013-01-26 01:49:00,13.5,-8.5,29.94,WNW,296,0.0,0.0,36,0.00,,---,0.00,VWS V14.01,2013-01-26 06:49:00,
2013-01-26 01:52:00,13.5,-8.5,29.94,WNW,296,0.0,0.0,36,0.00,,---,0.00,VWS V14.01,2013-01-26 06:52:00,
2013-01-26 01:54:00,13.3,-8.7,29.94,WNW,296,0.0,0.0,36,0.00,,---,0.00,VWS V14.01,2013-01-26 06:54:00,
2013-01-26 01:57:00,12.9,-9.0,29.94,WNW,296,0.0,0.0,36,0.00,,---,0.00,VWS V14.01,2013-01-26 06:57:00,
2013-01-26 01:59:00,12.7,-9.2,29.94,WNW,296,0.0,0.0,36,0.00,,---,0.00,VWS V14.01,2013-01-26 06:59:00,
2013-01-26 02:02:00,12.4,-9.5,29.94,WNW,296,0.0,0.0,36,0.00,,---,0.00,VWS V14.01,2013-01-26 07:02:00,
2013-01-26 02:04:00,12.2,-9.6,29.94,WNW,296,0.0,0.0,36,0.00,,---,0.00,VWS V14.01,2013-01-26 07:04:00,
2013-01-26 02:07:00,11.8,-10.0,29.94,WNW,296,0.0,0.0,36,0.00,,---,0.00,VWS V14.01,2013-01-26 07:07:00,
2013-01-26 02:08:00,11.8,-10.0,29.94,WNW,296,0.0,0.0,36,0.00,,---,0.00,VWS V14.01,2013-01-26 07:08:00,
2013-01-26 02:10:00,11.8,-10.0,29.94,WNW,296,0.0,0.0,36,0.00,,---,0.00,VWS V14.01,2013-01-26 07:10:00,
2013-01-26 02:12:00,11.5,-10.3,29.94,WNW,296,0.0,0.0,36,0.00,,---,0.00,VWS V14.01,2013-01-26 07:12:00,
2013-01-26 02:13:00,11.3,-10.4,29.94,WNW,296,0.0,0.0,36,0.00,,---,0.00,VWS V14.01,2013-01-26 07:13:00,
2013-01-26 02:15:00,11.3,-10.4,29.94,WNW,296,0.0,0.0,36,0.00,,---,0.00,VWS V14.01,2013-01-26 07:15:00,
2013-01-26 02:17:00,11.1,-10.6,29.94,WNW,296,0.0,0.0,36,0.00,,---,0.00,VWS V14.01,2013-01-26 07:17:00,
2013-01-26 02:18:00,11.1,-10.6,29.94,WNW,296,0.0,0.0,36,0.00,,---,0.00,VWS V14.01,2013-01-26 07:18:00,
2013-01-26 02:20:00,11.1,-10.6,29.94,WNW,296,0.0,0.0,36,0.00,,---,0.00,VWS V14.01,2013-01-26 07:20:00,
2013-01-26 02:22:00,11.1,-10.6,29.94,WNW,296,0.0,0.0,36,0.00,,---,0.00,VWS V14.01,2013-01-26 07:22:00,
2013-01-26 02:24:00,11.1,-10.6,29.94,WNW,296,0.0,0.0,36,0.00,,---,0.00,VWS V14.01,2013-01-26 07:24:00,
2013-01-26 02:25:00,11.1,-10.6,29.94,WNW,296,0.0,0.0,36,0.00,,---,0.00,VWS V14.01,2013-01-26 07:25:00,
2013-01-26 02:27:00,11.1,-10.6,29.94,WNW,296,0.0,0.0,36,0.00,,---,0.00,VWS V14.01,2013-01-26 07:27:00,
2013-01-26 02:28:00,11.1,-10.6,29.94,WNW,296,0.0,0.0,36,0.00,,---,0.00,VWS V14.01,2013-01-26 07:28:00,
2013-01-26 02:29:00,11.1,-10.6,29.94,WNW,296,0.0,0.0,36,0.00,,---,0.00,VWS V14.01,2013-01-26 07:29:00,
2013-01-26 02:30:00,11.1,-10.6,29.94,WNW,296,0.0,0.0,36,0.00,,---,0.00,VWS V14.01,2013-01-26 07:30:00,
2013-01-26 02:32:00,11.1,-10.6,29.94,WNW,296,0.0,0.0,36,0.00,,---,0.00,VWS V14.01,2013-01-26 07:32:00,
2013-01-26 02:33:00,11.1,-10.6,29.94,WNW,296,0.0,0.0,36,0.00,,---,0.00,VWS V14.01,2013-01-26 07:33:00,
2013-01-26 02:34:00,11.1,-10.6,29.94,WNW,296,0.0,0.0,36,0.00,,---,0.00,VWS V14.01,2013-01-26 07:34:00,
2013-01-26 02:35:00,11.1,-10.6,29.94,WNW,296,0.0,0.0,36,0.00,,---,0.00,VWS V14.01,2013-01-26 07:35:00,
2013-01-26 02:37:00,10.9,-10.8,29.94,WNW,296,0.0,0.0,36,0.00,,---,0.00,VWS V14.01,2013-01-26 07:37:00,
2013-01-26 02:38:00,10.9,-10.8,29.94,WNW,296,0.0,0.0,36,0.00,,---,0.00,VWS V14.01,2013-01-26 07:38:00,
2013-01-26 02:39:00,10.9,-10.8,29.94,WNW,296,0.0,0.0,36,0.00,,---,0.00,VWS V14.01,2013-01-26 07:39:00,
2013-01-26 02:40:00,10.9,-10.8,29.94,WNW,296,0.0,0.0,36,0.00,,---,0.00,VWS V14.01,2013-01-26 07:40:00,
2013-01-26 02:42:00,10.9,-10.8,29.94,WNW,296,0.0,0.0,36,0.00,,---,0.00,VWS V14.01,2013-01-26 07:42:00,
2013-01-26 02:43:00,10.9,-10.8,29.94,WNW,296,0.0,0.0,36,0.00,,---,0.00,VWS V14.01,2013-01-26 07:43:00,
2013-01-26 02:44:00,10.9,-10.8,29.94,WNW,296,0.0,0.0,36,0.00,,---,0.00,VWS V14.01,2013-01-26 07:44:00,
2013-01-26 02:46:00,10.9,-10.8,29.94,WNW,296,0.0,0.0,36,0.00,,---,0.00,VWS V14.01,2013-01-26 07:46:00,
2013-01-26 02:48:00,10.8,-10.9,29.94,WNW,296,0.0,0.0,36,0.00,,---,0.00,VWS V14.01,2013-01-26 07:48:00,
2013-01-26 02:49:00,10.8,-10.9,29.94,WNW,296,0.0,0.0,36,0.00,,---,0.00,VWS V14.01,2013-01-26 07:49:00,
2013-01-26 02:51:00,10.6,-11.1,29.94,WNW,296,0.0,0.0,36,0.00,,---,0.00,VWS V14.01,2013-01-26 07:51:00,
2013-01-26 02:53:00,10.6,-11.1,29.94,WNW,296,0.0,0.0,36,0.00,,---,0.00,VWS V14.01,2013-01-26 07:53:00,
2013-01-26 02:54:00,10.4,-11.3,29.94,WNW,296,0.0,0.0,36,0.00,,---,0.00,VWS V14.01,2013-01-26 07:54:00,
2013-01-26 02:56:00,10.4,-11.3,29.94,WNW,296,0.0,0.0,36,0.00,,---,0.00,VWS V14.01,2013-01-26 07:56:00,
2013-01-26 02:58:00,10.2,-11.4,29.94,WNW,296,0.0,0.0,36,0.00,,---,0.00,VWS V14.01,2013-01-26 07:58:00,
2013-01-26 02:59:00,10.2,-11.4,29.94,WNW,296,0.0,0.0,36,0.00,,---,0.00,VWS V14.01,2013-01-26 07:59:00,
2013-01-26 03:01:00,10.2,-11.4,29.94,WNW,296,0.0,0.0,36,0.00,,---,0.00,VWS V14.01,2013-01-26 08:01:00,
2013-01-26 03:03:00,10.2,-11.4,29.94,WNW,296,0.0,0.0,36,0.00,,---,0.00,VWS V14.01,2013-01-26 08:03:00,
2013-01-26 03:04:00,10.0,-11.6,29.94,WNW,296,0.0,0.0,36,0.00,,---,0.00,VWS V14.01,2013-01-26 08:04:00,
2013-01-26 03:06:00,10.0,-11.6,29.91,WNW,296,0.0,0.0,36,0.00,,---,0.00,VWS V14.01,2013-01-26 08:06:00,
2013-01-26 03:08:00,10.0,-11.6,29.91,WNW,296,0.0,0.0,36,0.00,,---,0.00,VWS V14.01,2013-01-26 08:08:00,
2013-01-26 03:09:00,9.7,-11.9,29.91,WNW,296,0.0,0.0,36,0.00,,---,0.00,VWS V14.01,2013-01-26 08:09:00,
2013-01-26 03:11:00,9.7,-11.9,29.91,WNW,296,0.0,0.0,36,0.00,,---,0.00,VWS V14.01,2013-01-26 08:11:00,
2013-01-26 03:13:00,9.7,-11.9,29.91,WNW,296,0.0,0.0,36,0.00,,---,0.00,VWS V14.01,2013-01-26 08:13:00,
2013-01-26 03:15:00,9.7,-11.9,29.91,WNW,296,0.0,0.0,36,0.00,,---,0.00,VWS V14.01,2013-01-26 08:15:00,
2013-01-26 03:16:00,9.7,-11.9,29.91,WNW,296,0.0,0.0,36,0.00,,---,0.00,VWS V14.01,2013-01-26 08:16:00,
2013-01-26 03:18:00,9.7,-11.9,29.91,WNW,296,0.0,0.0,36,0.00,,---,0.00,VWS V14.01,2013-01-26 08:18:00,
2013-01-26 03:20:00,9.5,-12.1,29.91,WNW,296,0.0,0.0,36,0.00,,---,0.00,VWS V14.01,2013-01-26 08:20:00,
2013-01-26 03:21:00,9.3,-12.2,29.91,WNW,296,0.0,0.0,36,0.00,,---,0.00,VWS V14.01,2013-01-26 08:21:00,
2013-01-26 03:23:00,9.1,-12.4,29.91,WNW,296,0.0,0.0,36,0.00,,---,0.00,VWS V14.01,2013-01-26 08:23:00,
2013-01-26 03:24:00,9.1,-12.4,29.91,WNW,296,0.0,0.0,36,0.00,,---,0.00,VWS V14.01,2013-01-26 08:24:00,
2013-01-26 03:25:00,9.1,-12.4,29.91,WNW,296,0.0,0.0,36,0.00,,---,0.00,VWS V14.01,2013-01-26 08:25:00,
2013-01-26 03:27:00,9.1,-12.4,29.91,WNW,296,0.0,0.0,36,0.00,,---,0.00,VWS V14.01,2013-01-26 08:27:00,
2013-01-26 03:28:00,9.1,-12.4,29.91,WNW,296,0.0,0.0,36,0.00,,---,0.00,VWS V14.01,2013-01-26 08:28:00,
2013-01-26 03:29:00,9.1,-12.4,29.91,WNW,296,0.0,0.0,36,0.00,,---,0.00,VWS V14.01,2013-01-26 08:29:00,
2013-01-26 03:30:00,8.8,-12.7,29.91,WNW,296,0.0,0.0,36,0.00,,---,0.00,VWS V14.01,2013-01-26 08:30:00,
2013-01-26 03:32:00,8.8,-12.7,29.91,WNW,296,0.0,0.0,36,0.00,,---,0.00,VWS V14.01,2013-01-26 08:32:00,
2013-01-26 03:33:00,8.6,-12.9,29.91,WNW,296,0.0,0.0,36,0.00,,---,0.00,VWS V14.01,2013-01-26 08:33:00,
2013-01-26 03:34:00,8.6,-12.9,29.91,WNW,296,0.0,0.0,36,0.00,,---,0.00,VWS V14.01,2013-01-26 08:34:00,
2013-01-26 03:35:00,8.6,-12.9,29.91,WNW,296,0.0,0.0,36,0.00,,---,0.00,VWS V14.01,2013-01-26 08:35:00,
2013-01-26 03:37:00,8.6,-12.9,29.91,WNW,296,0.0,0.0,36,0.00,,---,0.00,VWS V14.01,2013-01-26 08:37:00,
2013-01-26 03:38:00,8.6,-12.9,29.91,WNW,296,0.0,0.0,36,0.00,,---,0.00,VWS V14.01,2013-01-26 08:38:00,
2013-01-26 03:39:00,8.6,-12.9,29.91,WNW,296,0.0,0.0,36,0.00,,---,0.00,VWS V14.01,2013-01-26 08:39:00,
2013-01-26 03:40:00,8.6,-12.9,29.91,WNW,296,0.0,0.0,36,0.00,,---,0.00,VWS V14.01,2013-01-26 08:40:00,
2013-01-26 03:42:00,8.6,-12.9,29.91,WNW,296,0.0,0.0,36,0.00,,---,0.00,VWS V14.01,2013-01-26 08:42:00,
2013-01-26 03:43:00,8.6,-12.9,29.91,WNW,296,0.0,0.0,36,0.00,,---,0.00,VWS V14.01,2013-01-26 08:43:00,
2013-01-26 03:44:00,8.6,-12.9,29.91,WNW,296,0.0,0.0,36,0.00,,---,0.00,VWS V14.01,2013-01-26 08:44:00,
2013-01-26 03:45:00,8.6,-12.9,29.91,WNW,296,0.0,0.0,36,0.00,,---,0.00,VWS V14.01,2013-01-26 08:45:00,
2013-01-26 03:47:00,8.6,-12.9,29.91,WNW,296,0.0,0.0,36,0.00,,---,0.00,VWS V14.01,2013-01-26 08:47:00,
2013-01-26 03:49:00,8.6,-12.9,29.91,WNW,296,0.0,0.0,36,0.00,,---,0.00,VWS V14.01,2013-01-26 08:49:00,
2013-01-26 03:50:00,8.6,-12.9,29.94,WNW,296,0.0,0.0,36,0.00,,---,0.00,VWS V14.01,2013-01-26 08:50:00,
2013-01-26 03:52:00,8.8,-12.7,29.94,WNW,296,0.0,0.0,36,0.00,,---,0.00,VWS V14.01,2013-01-26 08:52:00,
2013-01-26 03:54:00,8.8,-12.7,29.94,WNW,296,0.0,0.0,36,0.00,,---,0.00,VWS V14.01,2013-01-26 08:54:00,
2013-01-26 03:55:00,9.0,-12.6,29.94,WNW,296,0.0,0.0,36,0.00,,---,0.00,VWS V14.01,2013-01-26 08:55:00,
2013-01-26 03:57:00,9.0,-12.6,29.94,WNW,296,0.0,0.0,36,0.00,,---,0.00,VWS V14.01,2013-01-26 08:57:00,
2013-01-26 03:59:00,9.1,-12.4,29.94,WNW,296,0.0,0.0,36,0.00,,---,0.00,VWS V14.01,2013-01-26 08:59:00,
2013-01-26 04:00:00,9.1,-12.4,29.94,WNW,296,0.0,0.0,36,0.00,,---,0.00,VWS V14.01,2013-01-26 09:00:00,
2013-01-26 04:02:00,9.3,-12.2,29.94,WNW,296,0.0,0.0,36,0.00,,---,0.00,VWS V14.01,2013-01-26 09:02:00,
2013-01-26 04:03:00,9.3,-12.2,29.94,WNW,296,0.0,0.0,36,0.00,,---,0.00,VWS V14.01,2013-01-26 09:03:00,
2013-01-26 04:04:00,9.3,-12.2,29.94,WNW,296,0.0,0.0,36,0.00,,---,0.00,VWS V14.01,2013-01-26 09:04:00,
2013-01-26 04:05:00,9.5,-12.1,29.94,WNW,296,0.0,0.0,36,0.00,,---,0.00,VWS V14.01,2013-01-26 09:05:00,
2013-01-26 04:08:00,9.5,-12.1,29.94,WNW,296,0.0,0.0,36,0.00,,---,0.00,VWS V14.01,2013-01-26 09:08:00,
2013-01-26 04:09:00,9.7,-11.9,29.94,WNW,296,0.0,0.0,36,0.00,,---,0.00,VWS V14.01,2013-01-26 09:09:00,
2013-01-26 04:11:00,9.7,-11.9,29.94,WNW,296,0.0,0.0,36,0.00,,---,0.00,VWS V14.01,2013-01-26 09:11:00,
2013-01-26 04:13:00,9.7,-11.9,29.94,WNW,296,0.0,0.0,36,0.00,,---,0.00,VWS V14.01,2013-01-26 09:13:00,
2013-01-26 04:14:00,9.7,-11.9,29.94,WNW,296,0.0,0.0,36,0.00,,---,0.00,VWS V14.01,2013-01-26 09:14:00,
2013-01-26 04:16:00,9.7,-11.9,29.94,WNW,296,0.0,0.0,36,0.00,,---,0.00,VWS V14.01,2013-01-26 09:16:00,
2013-01-26 04:18:00,9.7,-11.9,29.94,WNW,296,0.0,0.0,36,0.00,,---,0.00,VWS V14.01,2013-01-26 09:18:00,
2013-01-26 04:19:00,9.7,-11.9,29.94,WNW,296,0.0,0.0,36,0.00,,---,0.00,VWS V14.01,2013-01-26 09:19:00,
2013-01-26 04:21:00,9.7,-11.9,29.94,WNW,296,0.0,0.0,36,0.00,,---,0.00,VWS V14.01,2013-01-26 09:21:00,
2013-01-26 04:23:00,9.7,-11.9,29.94,WNW,296,0.0,0.0,36,0.00,,---,0.00,VWS V14.01,2013-01-26 09:23:00,
2013-01-26 04:24:00,9.9,-11.7,29.94,WNW,296,0.0,0.0,36,0.00,,---,0.00,VWS V14.01,2013-01-26 09:24:00,
2013-01-26 04:26:00,9.9,-11.7,29.94,WNW,296,0.0,0.0,36,0.00,,---,0.00,VWS V14.01,2013-01-26 09:26:00,
2013-01-26 04:28:00,10.0,-11.6,29.94,WNW,296,0.0,0.0,36,0.00,,---,0.00,VWS V14.01,2013-01-26 09:28:00,
2013-01-26 04:29:00,10.0,-11.6,29.94,WNW,296,0.0,0.0,36,0.00,,---,0.00,VWS V14.01,2013-01-26 09:29:00,
2013-01-26 04:31:00,10.2,-11.4,29.94,WNW,296,0.0,0.0,36,0.00,,---,0.00,VWS V14.01,2013-01-26 09:31:00,
2013-01-26 04:33:00,10.2,-11.4,29.94,WNW,296,0.0,0.0,36,0.00,,---,0.00,VWS V14.01,2013-01-26 09:33:00,
2013-01-26 04:34:00,10.2,-11.4,29.94,WNW,296,0.0,0.0,36,0.00,,---,0.00,VWS V14.01,2013-01-26 09:34:00,
2013-01-26 04:37:00,10.4,-11.3,29.94,WNW,296,0.0,0.0,36,0.00,,---,0.00,VWS V14.01,2013-01-26 09:37:00,
2013-01-26 04:38:00,10.4,-11.3,29.94,WNW,296,0.0,0.0,36,0.00,,---,0.00,VWS V14.01,2013-01-26 09:38:00,
2013-01-26 04:39:00,10.4,-11.3,29.94,WNW,296,0.0,0.0,36,0.00,,---,0.00,VWS V14.01,2013-01-26 09:39:00,
2013-01-26 04:42:00,10.6,-11.1,29.94,WNW,296,0.0,0.0,36,0.00,,---,0.00,VWS V14.01,2013-01-26 09:42:00,
2013-01-26 04:43:00,10.8,-10.9,29.94,WNW,296,0.0,0.0,36,0.00,,---,0.00,VWS V14.01,2013-01-26 09:43:00,
2013-01-26 04:44:00,10.8,-10.9,29.94,WNW,296,0.0,0.0,36,0.00,,---,0.00,VWS V14.01,2013-01-26 09:44:00,
2013-01-26 04:45:00,10.9,-10.8,29.94,WNW,296,0.0,0.0,36,0.00,,---,0.00,VWS V14.01,2013-01-26 09:45:00,
2013-01-26 04:47:00,10.9,-10.8,29.94,WNW,296,0.0,0.0,36,0.00,,---,0.00,VWS V14.01,2013-01-26 09:47:00,
2013-01-26 04:48:00,11.1,-10.6,29.94,WNW,296,0.0,0.0,36,0.00,,---,0.00,VWS V14.01,2013-01-26 09:48:00,
2013-01-26 04:49:00,11.1,-10.6,29.94,WNW,296,0.0,0.0,36,0.00,,---,0.00,VWS V14.01,2013-01-26 09:49:00,
2013-01-26 04:50:00,11.1,-10.6,29.94,WNW,296,0.0,0.0,36,0.00,,---,0.00,VWS V14.01,2013-01-26 09:50:00,
2013-01-26 04:52:00,11.1,-10.6,29.94,WNW,296,0.0,0.0,36,0.00,,---,0.00,VWS V14.01,2013-01-26 09:52:00,
2013-01-26 04:53:00,11.3,-10.4,29.94,WNW,296,0.0,0.0,36,0.00,,---,0.00,VWS V14.01,2013-01-26 09:53:00,
2013-01-26 04:54:00,11.3,-10.4,29.94,WNW,296,0.0,0.0,36,0.00,,---,0.00,VWS V14.01,2013-01-26 09:54:00,
2013-01-26 04:55:00,11.3,-10.4,29.94,WNW,296,0.0,0.0,36,0.00,,---,0.00,VWS V14.01,2013-01-26 09:55:00,
2013-01-26 04:57:00,11.3,-10.4,29.94,WNW,296,0.0,0.0,36,0.00,,---,0.00,VWS V14.01,2013-01-26 09:57:00,
2013-01-26 04:58:00,11.3,-10.4,29.94,WNW,296,0.0,0.0,36,0.00,,---,0.00,VWS V14.01,2013-01-26 09:58:00,
2013-01-26 04:59:00,11.3,-10.4,29.94,WNW,296,0.0,0.0,36,0.00,,---,0.00,VWS V14.01,2013-01-26 09:59:00,
2013-01-26 05:00:00,11.3,-10.4,29.94,WNW,296,0.0,0.0,36,0.00,,---,0.00,VWS V14.01,2013-01-26 10:00:00,
2013-01-26 05:02:00,11.3,-10.4,29.94,WNW,296,0.0,0.0,36,0.00,,---,0.00,VWS V14.01,2013-01-26 10:02:00,
2013-01-26 05:04:00,11.3,-10.4,29.94,WNW,296,0.0,0.0,36,0.00,,---,0.00,VWS V14.01,2013-01-26 10:04:00,
2013-01-26 05:05:00,11.3,-10.4,29.94,WNW,296,0.0,0.0,36,0.00,,---,0.00,VWS V14.01,2013-01-26 10:05:00,
2013-01-26 05:07:00,11.5,-10.3,29.97,WNW,296,0.0,0.0,36,0.00,,---,0.00,VWS V14.01,2013-01-26 10:07:00,
2013-01-26 05:09:00,11.7,-10.1,29.97,WNW,296,0.0,0.0,36,0.00,,---,0.00,VWS V14.01,2013-01-26 10:09:00,
2013-01-26 05:10:00,11.8,-10.0,29.97,WNW,296,0.0,0.0,36,0.00,,---,0.00,VWS V14.01,2013-01-26 10:10:00,
2013-01-26 05:12:00,12.0,-9.8,29.97,WNW,296,0.0,0.0,36,0.00,,---,0.00,VWS V14.01,2013-01-26 10:12:00,
2013-01-26 05:14:00,12.0,-9.8,29.97,WNW,296,0.0,0.0,36,0.00,,---,0.00,VWS V14.01,2013-01-26 10:14:00,
2013-01-26 05:15:00,12.0,-9.8,29.97,WNW,296,0.0,0.0,36,0.00,,---,0.00,VWS V14.01,2013-01-26 10:15:00,
2013-01-26 05:18:00,12.2,-9.6,29.97,WNW,296,0.0,0.0,36,0.00,,---,0.00,VWS V14.01,2013-01-26 10:18:00,
2013-01-26 05:19:00,12.2,-9.6,29.97,WNW,296,0.0,0.0,36,0.00,,---,0.00,VWS V14.01,2013-01-26 10:19:00,
2013-01-26 05:20:00,12.2,-9.6,29.97,WNW,296,0.0,0.0,36,0.00,,---,0.00,VWS V14.01,2013-01-26 10:20:00,
2013-01-26 05:23:00,12.4,-9.5,29.97,WNW,296,0.0,0.0,36,0.00,,---,0.00,VWS V14.01,2013-01-26 10:23:00,
2013-01-26 05:24:00,12.4,-9.5,29.97,WNW,296,0.0,0.0,36,0.00,,---,0.00,VWS V14.01,2013-01-26 10:24:00,
2013-01-26 05:25:00,12.4,-9.5,29.97,WNW,296,0.0,0.0,36,0.00,,---,0.00,VWS V14.01,2013-01-26 10:25:00,
2013-01-26 05:28:00,12.4,-9.5,29.97,WNW,296,0.0,0.0,36,0.00,,---,0.00,VWS V14.01,2013-01-26 10:28:00,
2013-01-26 05:29:00,12.4,-9.5,29.97,WNW,296,0.0,0.0,36,0.00,,---,0.00,VWS V14.01,2013-01-26 10:29:00,
2013-01-26 05:30:00,12.4,-9.5,29.97,WNW,296,0.0,0.0,36,0.00,,---,0.00,VWS V14.01,2013-01-26 10:30:00,
2013-01-26 05:33:00,12.4,-9.5,29.97,WNW,296,0.0,0.0,36,0.00,,---,0.00,VWS V14.01,2013-01-26 10:33:00,
2013-01-26 05:34:00,12.4,-9.5,29.97,WNW,296,0.0,0.0,36,0.00,,---,0.00,VWS V14.01,2013-01-26 10:34:00,
2013-01-26 05:35:00,12.4,-9.5,29.97,WNW,296,0.0,0.0,36,0.00,,---,0.00,VWS V14.01,2013-01-26 10:35:00,
2013-01-26 05:36:00,12.4,-9.5,29.97,WNW,296,0.0,0.0,36,0.00,,---,0.00,VWS V14.01,2013-01-26 10:36:00,
2013-01-26 05:38:00,12.6,-9.3,29.97,WNW,296,0.0,0.0,36,0.00,,---,0.00,VWS V14.01,2013-01-26 10:38:00,
2013-01-26 05:39:00,12.6,-9.3,29.97,WNW,296,0.0,0.0,36,0.00,,---,0.00,VWS V14.01,2013-01-26 10:39:00,
2013-01-26 05:40:00,12.7,-9.2,29.97,WNW,296,0.0,0.0,36,0.00,,---,0.00,VWS V14.01,2013-01-26 10:40:00,
2013-01-26 05:41:00,12.7,-9.2,29.97,WNW,296,0.0,0.0,36,0.00,,---,0.00,VWS V14.01,2013-01-26 10:41:00,
2013-01-26 05:43:00,12.7,-9.2,29.97,WNW,296,0.0,0.0,36,0.00,,---,0.00,VWS V14.01,2013-01-26 10:43:00,
2013-01-26 05:44:00,12.9,-9.0,29.97,WNW,296,0.0,0.0,36,0.00,,---,0.00,VWS V14.01,2013-01-26 10:44:00,
2013-01-26 05:45:00,12.9,-9.0,29.97,WNW,296,0.0,0.0,36,0.00,,---,0.00,VWS V14.01,2013-01-26 10:45:00,
2013-01-26 05:46:00,12.9,-9.0,29.97,WNW,296,0.0,0.0,36,0.00,,---,0.00,VWS V14.01,2013-01-26 10:46:00,
2013-01-26 05:48:00,13.1,-8.8,29.97,WNW,296,0.0,0.0,36,0.00,,---,0.00,VWS V14.01,2013-01-26 10:48:00,
2013-01-26 05:49:00,13.3,-8.7,29.97,WNW,296,0.0,0.0,36,0.00,,---,0.00,VWS V14.01,2013-01-26 10:49:00,
2013-01-26 05:51:00,13.3,-8.7,29.97,WNW,296,0.0,0.0,36,0.00,,---,0.00,VWS V14.01,2013-01-26 10:51:00,
2013-01-26 05:53:00,13.5,-8.5,29.97,WNW,296,0.0,0.0,36,0.00,,---,0.00,VWS V14.01,2013-01-26 10:53:00,
2013-01-26 05:54:00,13.5,-8.5,29.97,WNW,296,0.0,0.0,36,0.00,,---,0.00,VWS V14.01,2013-01-26 10:54:00,
2013-01-26 05:56:00,13.5,-8.5,29.97,WNW,296,0.0,0.0,36,0.00,,---,0.00,VWS V14.01,2013-01-26 10:56:00,
2013-01-26 05:58:00,13.5,-8.5,29.97,WNW,296,0.0,0.0,36,0.00,,---,0.00,VWS V14.01,2013-01-26 10:58:00,
2013-01-26 05:59:00,13.5,-8.5,29.97,WNW,296,0.0,0.0,36,0.00,,---,0.00,VWS V14.01,2013-01-26 10:59:00,
2013-01-26 06:01:00,13.6,-8.4,29.97,WNW,296,0.0,0.0,36,0.00,,---,0.00,VWS V14.01,2013-01-26 11:01:00,
2013-01-26 06:03:00,13.6,-8.4,29.97,WNW,296,0.0,0.0,36,0.00,,---,0.00,VWS V14.01,2013-01-26 11:03:00,
2013-01-26 06:04:00,13.6,-8.4,29.97,WNW,296,0.0,0.0,36,0.00,,---,0.00,VWS V14.01,2013-01-26 11:04:00,
2013-01-26 06:06:00,13.8,-8.2,29.97,WNW,296,0.0,0.0,36,0.00,,---,0.00,VWS V14.01,2013-01-26 11:06:00,
2013-01-26 06:07:00,13.8,-8.2,29.97,WNW,296,0.0,0.0,36,0.00,,---,0.00,VWS V14.01,2013-01-26 11:07:00,
2013-01-26 06:08:00,14.0,-5.9,29.97,WNW,296,0.0,0.0,40,0.00,,---,0.00,VWS V14.01,2013-01-26 11:08:00,
2013-01-26 06:09:00,14.0,-5.9,29.97,WNW,296,0.0,0.0,40,0.00,,---,0.00,VWS V14.01,2013-01-26 11:09:00,
2013-01-26 06:12:00,14.0,-5.9,29.97,WNW,296,0.0,0.0,40,0.00,,---,0.00,VWS V14.01,2013-01-26 11:12:00,
2013-01-26 06:13:00,14.0,-5.9,29.97,WNW,296,0.0,0.0,40,0.00,,---,0.00,VWS V14.01,2013-01-26 11:13:00,
2013-01-26 06:14:00,14.0,-5.9,29.97,WNW,296,0.0,0.0,40,0.00,,---,0.00,VWS V14.01,2013-01-26 11:14:00,
2013-01-26 06:17:00,14.0,-6.4,29.97,WNW,296,0.0,0.0,39,0.00,,---,0.00,VWS V14.01,2013-01-26 11:17:00,
2013-01-26 06:19:00,14.0,-5.9,29.97,WNW,296,0.0,0.0,40,0.00,,---,0.00,VWS V14.01,2013-01-26 11:19:00,
2013-01-26 06:22:00,14.2,-5.7,29.97,WNW,296,0.0,0.0,40,0.00,,---,0.00,VWS V14.01,2013-01-26 11:22:00,
2013-01-26 06:23:00,14.2,-5.7,29.97,WNW,296,0.0,0.0,40,0.00,,---,0.00,VWS V14.01,2013-01-26 11:23:00,
2013-01-26 06:24:00,14.2,-5.7,29.97,WNW,296,0.0,0.0,40,0.00,,---,0.00,VWS V14.01,2013-01-26 11:24:00,
2013-01-26 06:27:00,14.4,-5.5,29.97,WNW,296,0.0,0.0,40,0.00,,---,0.00,VWS V14.01,2013-01-26 11:27:00,
2013-01-26 06:28:00,14.4,-5.5,29.97,WNW,296,0.0,0.0,40,0.00,,---,0.00,VWS V14.01,2013-01-26 11:28:00,
2013-01-26 06:29:00,14.5,-5.4,29.97,WNW,296,0.0,0.0,40,0.00,,---,0.00,VWS V14.01,2013-01-26 11:29:00,
2013-01-26 06:32:00,14.5,-4.9,29.97,WNW,296,0.0,0.0,41,0.00,,---,0.00,VWS V14.01,2013-01-26 11:32:00,
2013-01-26 06:33:00,14.5,-4.9,29.97,WNW,296,0.0,0.0,41,0.00,,---,0.00,VWS V14.01,2013-01-26 11:33:00,
2013-01-26 06:34:00,14.5,-4.9,29.97,WNW,296,0.0,0.0,41,0.00,,---,0.00,VWS V14.01,2013-01-26 11:34:00,
2013-01-26 06:37:00,14.7,-3.2,30.00,WNW,296,0.0,0.0,44,0.00,,---,0.00,VWS V14.01,2013-01-26 11:37:00,
2013-01-26 06:38:00,14.7,-3.2,30.00,WNW,296,0.0,0.0,44,0.00,,---,0.00,VWS V14.01,2013-01-26 11:38:00,
2013-01-26 06:39:00,14.7,-3.7,30.00,WNW,296,0.0,0.0,43,0.00,,---,0.00,VWS V14.01,2013-01-26 11:39:00,
2013-01-26 06:42:00,14.5,-3.9,30.00,WNW,296,0.0,0.0,43,0.00,,---,0.00,VWS V14.01,2013-01-26 11:42:00,
2013-01-26 06:44:00,14.5,-3.9,30.00,WNW,296,0.0,0.0,43,0.00,,---,0.00,VWS V14.01,2013-01-26 11:44:00,
2013-01-26 06:45:00,14.5,-3.9,30.00,WNW,296,0.0,0.0,43,0.00,,---,0.00,VWS V14.01,2013-01-26 11:45:00,
2013-01-26 06:47:00,14.5,-3.4,30.00,WNW,296,0.0,0.0,44,0.00,,---,0.00,VWS V14.01,2013-01-26 11:47:00,
2013-01-26 06:49:00,14.4,-3.6,30.00,WNW,296,0.0,0.0,44,0.00,,---,0.00,VWS V14.01,2013-01-26 11:49:00,
2013-01-26 06:50:00,14.4,-3.6,30.00,WNW,296,0.0,0.0,44,0.00,,---,0.00,VWS V14.01,2013-01-26 11:50:00,
2013-01-26 06:52:00,14.4,-3.6,30.00,WNW,296,0.0,0.0,44,0.00,,---,0.00,VWS V14.01,2013-01-26 11:52:00,
2013-01-26 06:54:00,14.4,-3.6,30.00,WNW,296,0.0,0.0,44,0.00,,---,0.00,VWS V14.01,2013-01-26 11:54:00,
2013-01-26 06:55:00,14.5,-3.4,30.00,WNW,296,0.0,0.0,44,0.00,,---,0.00,VWS V14.01,2013-01-26 11:55:00,
2013-01-26 06:57:00,14.5,-3.4,30.00,WNW,296,0.0,0.0,44,0.00,,---,0.00,VWS V14.01,2013-01-26 11:57:00,
2013-01-26 06:59:00,14.5,-3.4,30.00,WNW,296,0.0,0.0,44,0.00,,---,0.00,VWS V14.01,2013-01-26 11:59:00,
2013-01-26 07:00:00,14.5,-3.4,30.00,WNW,296,0.0,0.0,44,0.00,,---,0.00,VWS V14.01,2013-01-26 12:00:00,
2013-01-26 07:02:00,14.5,-3.4,30.00,WNW,296,0.0,0.0,44,0.00,,---,0.00,VWS V14.01,2013-01-26 12:02:00,
2013-01-26 07:04:00,14.5,-3.4,30.00,WNW,296,0.0,0.0,44,0.00,,---,0.00,VWS V14.01,2013-01-26 12:04:00,
2013-01-26 07:05:00,14.7,-3.2,30.00,WNW,296,0.0,0.0,44,0.00,,---,0.00,VWS V14.01,2013-01-26 12:05:00,
2013-01-26 07:07:00,14.9,-3.1,30.00,WNW,296,0.0,0.0,44,0.00,,---,0.00,VWS V14.01,2013-01-26 12:07:00,
2013-01-26 07:09:00,14.9,-3.1,30.00,WNW,296,0.0,0.0,44,0.00,,---,0.00,VWS V14.01,2013-01-26 12:09:00,
2013-01-26 07:10:00,14.9,-3.1,30.00,WNW,296,0.0,0.0,44,0.00,,---,0.00,VWS V14.01,2013-01-26 12:10:00,
2013-01-26 07:12:00,14.9,-3.1,30.00,WNW,296,0.0,0.0,44,0.00,,---,0.00,VWS V14.01,2013-01-26 12:12:00,
2013-01-26 07:14:00,14.9,-3.1,30.00,WNW,296,0.0,0.0,44,0.00,,---,0.00,VWS V14.01,2013-01-26 12:14:00,
2013-01-26 07:15:00,14.9,-3.1,30.00,WNW,296,0.0,0.0,44,0.00,,---,0.00,VWS V14.01,2013-01-26 12:15:00,
2013-01-26 07:17:00,15.1,-2.9,30.00,WNW,296,0.0,0.0,44,0.00,,---,0.00,VWS V14.01,2013-01-26 12:17:00,
2013-01-26 07:19:00,15.3,-2.7,30.00,WNW,296,0.0,0.0,44,0.00,,---,0.00,VWS V14.01,2013-01-26 12:19:00,
2013-01-26 07:20:00,15.3,-2.7,30.00,WNW,296,0.0,0.0,44,0.00,,---,0.00,VWS V14.01,2013-01-26 12:20:00,
2013-01-26 07:22:00,15.4,-2.6,30.00,WNW,296,0.0,0.0,44,0.00,,---,0.00,VWS V14.01,2013-01-26 12:22:00,
2013-01-26 07:25:00,15.4,-2.6,30.00,WNW,296,0.0,0.0,44,0.00,,---,0.00,VWS V14.01,2013-01-26 12:25:00,
2013-01-26 07:26:00,15.6,-2.4,30.00,WNW,296,0.0,0.0,44,0.00,,---,0.00,VWS V14.01,2013-01-26 12:26:00,
2013-01-26 07:27:00,15.8,-1.8,30.00,WNW,296,0.0,0.0,45,0.00,,---,0.00,VWS V14.01,2013-01-26 12:27:00,
2013-01-26 07:30:00,15.8,-1.8,30.00,WNW,296,0.0,0.0,45,0.00,,---,0.00,VWS V14.01,2013-01-26 12:30:00,
2013-01-26 07:31:00,15.8,-1.8,30.00,WNW,296,0.0,0.0,45,0.00,,---,0.00,VWS V14.01,2013-01-26 12:31:00,
2013-01-26 07:33:00,16.0,-2.1,30.00,WNW,296,0.0,0.0,44,0.00,,---,0.00,VWS V14.01,2013-01-26 12:33:00,
2013-01-26 07:35:00,16.2,-1.9,30.00,WNW,296,0.0,0.0,44,0.00,,---,0.00,VWS V14.01,2013-01-26 12:35:00,
2013-01-26 07:36:00,16.2,-1.9,30.00,WNW,296,0.0,0.0,44,0.00,,---,0.00,VWS V14.01,2013-01-26 12:36:00,
2013-01-26 07:38:00,16.2,-1.9,30.00,WNW,296,0.0,0.0,44,0.00,,---,0.00,VWS V14.01,2013-01-26 12:38:00,
2013-01-26 07:40:00,16.3,-1.7,30.00,WNW,296,0.0,0.0,44,0.00,,---,0.00,VWS V14.01,2013-01-26 12:40:00,
2013-01-26 07:41:00,16.3,-1.7,30.00,WNW,296,0.0,0.0,44,0.00,,---,0.00,VWS V14.01,2013-01-26 12:41:00,
2013-01-26 07:44:00,16.5,-1.6,30.00,WNW,296,0.0,0.0,44,0.00,,---,0.00,VWS V14.01,2013-01-26 12:44:00,
2013-01-26 07:45:00,16.5,-1.6,30.00,WNW,296,0.0,0.0,44,0.00,,---,0.00,VWS V14.01,2013-01-26 12:45:00,
2013-01-26 07:46:00,16.5,-1.6,30.00,WNW,296,0.0,0.0,44,0.00,,---,0.00,VWS V14.01,2013-01-26 12:46:00,
2013-01-26 07:48:00,16.7,-1.4,30.00,WNW,296,0.0,0.0,44,0.00,,---,0.00,VWS V14.01,2013-01-26 12:48:00,
2013-01-26 07:50:00,16.7,-1.4,30.00,WNW,296,0.0,0.0,44,0.00,,---,0.00,VWS V14.01,2013-01-26 12:50:00,
2013-01-26 07:51:00,16.7,-1.4,30.03,WNW,296,0.0,0.0,44,0.00,,---,0.00,VWS V14.01,2013-01-26 12:51:00,
2013-01-26 07:53:00,16.7,-1.4,30.03,WNW,296,0.0,0.0,44,0.00,,---,0.00,VWS V14.01,2013-01-26 12:53:00,
2013-01-26 07:55:00,16.7,-1.4,30.03,WNW,296,0.0,0.0,44,0.00,,---,0.00,VWS V14.01,2013-01-26 12:55:00,
2013-01-26 07:56:00,16.9,-1.2,30.03,WNW,296,0.0,0.0,44,0.00,,---,0.00,VWS V14.01,2013-01-26 12:56:00,
2013-01-26 07:58:00,16.9,-1.2,30.03,WNW,296,0.0,0.0,44,0.00,,---,0.00,VWS V14.01,2013-01-26 12:58:00,
2013-01-26 08:00:00,16.9,-1.2,30.03,West,259,0.0,0.0,44,0.00,,---,0.00,VWS V14.01,2013-01-26 13:00:00,
2013-01-26 08:01:00,16.9,-1.2,30.03,West,259,0.0,0.0,44,0.00,,---,0.00,VWS V14.01,2013-01-26 13:01:00,
2013-01-26 08:04:00,16.9,-1.2,30.03,West,259,0.0,3.1,44,0.00,,---,0.00,VWS V14.01,2013-01-26 13:04:00,
2013-01-26 08:05:00,17.1,-1.1,30.03,WSW,257,0.0,0.0,44,0.00,,---,0.00,VWS V14.01,2013-01-26 13:05:00,
2013-01-26 08:06:00,17.1,-1.1,30.03,WSW,257,0.0,0.0,44,0.00,,---,0.00,VWS V14.01,2013-01-26 13:06:00,
2013-01-26 08:09:00,17.1,-1.1,30.03,West,274,0.0,0.0,44,0.00,,---,0.00,VWS V14.01,2013-01-26 13:09:00,
2013-01-26 08:10:00,17.1,-1.1,30.03,West,274,0.0,0.0,44,0.00,,---,0.00,VWS V14.01,2013-01-26 13:10:00,
2013-01-26 08:11:00,17.1,-1.1,30.03,West,274,0.0,0.0,44,0.00,,---,0.00,VWS V14.01,2013-01-26 13:11:00,
2013-01-26 08:14:00,17.1,-1.1,30.03,WNW,287,2.2,3.1,44,0.00,,---,0.00,VWS V14.01,2013-01-26 13:14:00,
2013-01-26 08:15:00,17.1,-1.1,30.03,WNW,290,0.0,2.7,44,0.00,,---,0.00,VWS V14.01,2013-01-26 13:15:00,
2013-01-26 08:16:00,17.1,-1.1,30.03,WNW,290,2.7,2.7,44,0.00,,---,0.00,VWS V14.01,2013-01-26 13:16:00,
2013-01-26 08:17:00,17.1,-1.1,30.03,WNW,290,2.2,2.7,44,0.00,,---,0.00,VWS V14.01,2013-01-26 13:17:00,
2013-01-26 08:19:00,17.4,-0.3,30.03,WNW,290,2.7,2.7,45,0.00,,---,0.00,VWS V14.01,2013-01-26 13:19:00,
2013-01-26 08:20:00,17.6,-0.1,30.03,WNW,289,0.0,0.0,45,0.00,,---,0.00,VWS V14.01,2013-01-26 13:20:00,
2013-01-26 08:21:00,17.6,-0.1,30.03,WNW,289,0.0,0.0,45,0.00,,---,0.00,VWS V14.01,2013-01-26 13:21:00,
2013-01-26 08:22:00,17.8,0.1,30.03,WNW,289,0.0,0.0,45,0.00,,---,0.00,VWS V14.01,2013-01-26 13:22:00,
2013-01-26 08:24:00,17.8,0.1,30.03,WNW,289,0.0,0.0,45,0.00,,---,0.00,VWS V14.01,2013-01-26 13:24:00,
2013-01-26 08:25:00,18.1,0.4,30.03,WNW,289,0.0,0.0,45,0.00,,---,0.00,VWS V14.01,2013-01-26 13:25:00,
2013-01-26 08:26:00,18.1,0.4,30.03,WNW,289,0.0,0.0,45,0.00,,---,0.00,VWS V14.01,2013-01-26 13:26:00,
2013-01-26 08:27:00,18.1,0.4,30.03,WNW,289,0.0,0.0,45,0.00,,---,0.00,VWS V14.01,2013-01-26 13:27:00,
2013-01-26 08:29:00,18.5,0.7,30.03,WNW,289,0.0,0.0,45,0.00,,---,0.00,VWS V14.01,2013-01-26 13:29:00,
2013-01-26 08:30:00,18.5,0.7,30.03,WNW,289,0.0,2.7,45,0.00,,---,0.00,VWS V14.01,2013-01-26 13:30:00,
2013-01-26 08:31:00,18.7,0.9,30.03,West,265,5.4,5.4,45,0.00,,---,0.00,VWS V14.01,2013-01-26 13:31:00,
2013-01-26 08:32:00,18.7,0.9,30.03,WSW,240,2.7,3.1,45,0.00,,---,0.00,VWS V14.01,2013-01-26 13:32:00,
2013-01-26 08:34:00,18.9,0.6,30.03,WNW,282,2.2,2.2,44,0.00,,---,0.00,VWS V14.01,2013-01-26 13:34:00,
2013-01-26 08:35:00,19.0,0.7,30.03,WSW,256,3.1,4.9,44,0.00,,---,0.00,VWS V14.01,2013-01-26 13:35:00,
2013-01-26 08:36:00,19.0,0.7,30.03,SW,227,3.6,3.6,44,0.00,,---,0.00,VWS V14.01,2013-01-26 13:36:00,
2013-01-26 08:37:00,19.2,0.9,30.03,SW,228,0.0,3.6,44,0.00,,---,0.00,VWS V14.01,2013-01-26 13:37:00,
2013-01-26 08:40:00,19.2,0.9,30.03,West,273,4.0,4.0,44,0.00,,---,0.00,VWS V14.01,2013-01-26 13:40:00,
2013-01-26 08:41:00,19.4,1.1,30.03,WNW,287,3.1,3.1,44,0.00,,---,0.00,VWS V14.01,2013-01-26 13:41:00,
2013-01-26 08:42:00,19.6,0.7,30.03,West,270,2.2,3.1,43,0.00,,---,0.00,VWS V14.01,2013-01-26 13:42:00,
2013-01-26 08:45:00,19.8,0.9,30.03,West,265,3.1,3.1,43,0.00,,---,0.00,VWS V14.01,2013-01-26 13:45:00,
2013-01-26 08:46:00,19.8,0.4,30.03,WSW,252,3.1,4.0,42,0.00,,---,0.00,VWS V14.01,2013-01-26 13:46:00,
2013-01-26 08:47:00,19.9,0.0,30.03,West,268,4.0,5.4,41,0.00,,---,0.00,VWS V14.01,2013-01-26 13:47:00,
2013-01-26 08:50:00,20.1,-1.4,30.03,West,276,2.2,3.1,38,0.00,,---,0.00,VWS V14.01,2013-01-26 13:50:00,
2013-01-26 08:51:00,20.3,-1.2,30.03,West,260,0.0,3.1,38,0.00,,---,0.00,VWS V14.01,2013-01-26 13:51:00,
2013-01-26 08:52:00,20.3,-1.2,30.03,WNW,283,2.2,2.2,38,0.00,,---,0.00,VWS V14.01,2013-01-26 13:52:00,
2013-01-26 08:55:00,20.5,-2.2,30.03,West,274,5.4,5.4,36,0.00,,---,0.00,VWS V14.01,2013-01-26 13:55:00,
2013-01-26 08:56:00,20.5,-2.8,30.03,NNW,328,4.9,5.8,35,0.00,,---,0.00,VWS V14.01,2013-01-26 13:56:00,
2013-01-26 08:57:00,20.7,-2.7,30.03,NW,310,3.1,5.8,35,0.00,,---,0.00,VWS V14.01,2013-01-26 13:57:00,
2013-01-26 09:00:00,20.8,-3.1,30.03,WNW,294,2.7,2.7,34,0.00,,---,0.00,VWS V14.01,2013-01-26 14:00:00,
2013-01-26 09:01:00,21.0,-2.9,30.03,WNW,282,3.1,4.0,34,0.00,,---,0.00,VWS V14.01,2013-01-26 14:01:00,
2013-01-26 09:02:00,21.0,-2.9,30.03,West,264,7.6,7.6,34,0.00,,---,0.00,VWS V14.01,2013-01-26 14:02:00,
2013-01-26 09:05:00,21.2,-2.8,30.03,NW,311,2.7,3.1,34,0.00,,---,0.00,VWS V14.01,2013-01-26 14:05:00,
2013-01-26 09:06:00,21.2,-3.4,30.03,NNW,340,4.9,4.9,33,0.00,,---,0.00,VWS V14.01,2013-01-26 14:06:00,
2013-01-26 09:07:00,21.4,-3.2,30.03,SW,219,2.7,8.1,33,0.00,,---,0.00,VWS V14.01,2013-01-26 14:07:00,
2013-01-26 09:08:00,21.4,-3.2,30.03,South,173,3.6,8.1,33,0.00,,---,0.00,VWS V14.01,2013-01-26 14:08:00,
2013-01-26 09:10:00,21.4,-3.9,30.03,WSW,247,3.6,4.9,32,0.00,,---,0.00,VWS V14.01,2013-01-26 14:10:00,
2013-01-26 09:11:00,21.6,-3.7,30.03,WSW,256,4.0,5.8,32,0.00,,---,0.00,VWS V14.01,2013-01-26 14:11:00,
2013-01-26 09:12:00,21.6,-3.7,30.03,West,270,5.8,7.2,32,0.00,,---,0.00,VWS V14.01,2013-01-26 14:12:00,
2013-01-26 09:15:00,21.6,-3.7,30.03,West,260,6.3,6.3,32,0.00,,---,0.00,VWS V14.01,2013-01-26 14:15:00,
2013-01-26 09:16:00,21.6,-5.1,30.03,West,276,6.3,8.3,30,0.00,,---,0.00,VWS V14.01,2013-01-26 14:16:00,
2013-01-26 09:17:00,21.7,-4.9,30.03,WNW,287,5.8,5.8,30,0.00,,---,0.00,VWS V14.01,2013-01-26 14:17:00,
2013-01-26 09:18:00,21.7,-4.9,30.03,West,273,7.6,7.6,30,0.00,,---,0.00,VWS V14.01,2013-01-26 14:18:00,
2013-01-26 09:20:00,21.7,-8.6,30.03,West,275,8.1,8.1,25,0.00,,---,0.00,VWS V14.01,2013-01-26 14:20:00,
2013-01-26 09:21:00,21.7,-8.6,30.03,NW,310,7.6,7.6,25,0.00,,---,0.00,VWS V14.01,2013-01-26 14:21:00,
2013-01-26 09:22:00,21.7,-8.6,30.03,NW,320,4.0,6.3,25,0.00,,---,0.00,VWS V14.01,2013-01-26 14:22:00,
2013-01-26 09:23:00,21.7,-8.6,30.03,West,274,4.0,4.0,25,0.00,,---,0.00,VWS V14.01,2013-01-26 14:23:00,
2013-01-26 09:25:00,21.7,-8.6,30.03,NNW,327,3.6,5.4,25,0.00,,---,0.00,VWS V14.01,2013-01-26 14:25:00,
2013-01-26 09:26:00,21.7,-8.6,30.03,NNW,327,3.6,4.0,25,0.00,,---,0.00,VWS V14.01,2013-01-26 14:26:00,
2013-01-26 09:27:00,21.9,-8.5,30.03,West,264,2.7,4.0,25,0.00,,---,0.00,VWS V14.01,2013-01-26 14:27:00,
2013-01-26 09:28:00,21.9,-8.5,30.03,West,264,3.1,3.1,25,0.00,,---,0.00,VWS V14.01,2013-01-26 14:28:00,
2013-01-26 09:30:00,22.1,-8.3,30.03,West,268,4.9,4.9,25,0.00,,---,0.00,VWS V14.01,2013-01-26 14:30:00,
2013-01-26 09:31:00,22.3,-8.2,30.03,NW,321,3.1,6.3,25,0.00,,---,0.00,VWS V14.01,2013-01-26 14:31:00,
2013-01-26 09:32:00,22.3,-8.2,30.03,NW,325,5.8,5.8,25,0.00,,---,0.00,VWS V14.01,2013-01-26 14:32:00,
2013-01-26 09:33:00,22.3,-8.2,30.03,WNW,291,5.4,5.8,25,0.00,,---,0.00,VWS V14.01,2013-01-26 14:33:00,
2013-01-26 09:35:00,22.3,-10.8,30.03,NW,308,3.6,6.3,22,0.00,,---,0.00,VWS V14.01,2013-01-26 14:35:00,
2013-01-26 09:37:00,22.5,-10.6,30.03,NNW,328,4.0,5.8,22,0.00,,---,0.00,VWS V14.01,2013-01-26 14:37:00,
2013-01-26 09:38:00,22.3,-10.8,30.03,NW,312,4.0,5.8,22,0.00,,---,0.00,VWS V14.01,2013-01-26 14:38:00,
2013-01-26 09:40:00,22.3,-10.8,30.03,West,268,5.4,6.3,22,0.00,,---,0.00,VWS V14.01,2013-01-26 14:40:00,
2013-01-26 09:42:00,22.3,-10.8,30.03,WSW,244,8.3,10.5,22,0.00,,---,0.00,VWS V14.01,2013-01-26 14:42:00,
2013-01-26 09:43:00,22.3,-10.8,30.03,WSW,243,4.9,10.5,22,0.00,,---,0.00,VWS V14.01,2013-01-26 14:43:00,
2013-01-26 09:45:00,22.5,-10.6,30.03,NW,306,8.1,10.1,22,0.00,,---,0.00,VWS V14.01,2013-01-26 14:45:00,
2013-01-26 09:47:00,22.6,-10.5,30.03,NW,326,6.3,6.3,22,0.00,,---,0.00,VWS V14.01,2013-01-26 14:47:00,
2013-01-26 09:48:00,22.5,-10.6,30.03,NW,307,7.6,7.6,22,0.00,,---,0.00,VWS V14.01,2013-01-26 14:48:00,
2013-01-26 09:50:00,22.5,-10.6,30.03,NW,323,4.0,5.8,22,0.00,,---,0.00,VWS V14.01,2013-01-26 14:50:00,
2013-01-26 09:52:00,22.8,-10.3,30.03,SW,224,6.7,8.7,22,0.00,,---,0.00,VWS V14.01,2013-01-26 14:52:00,
2013-01-26 09:53:00,22.8,-10.3,30.03,WNW,285,5.4,5.8,22,0.00,,---,0.00,VWS V14.01,2013-01-26 14:53:00,
2013-01-26 09:56:00,22.8,-10.3,30.03,SW,233,5.8,8.1,22,0.00,,---,0.00,VWS V14.01,2013-01-26 14:56:00,
2013-01-26 09:57:00,23.0,-10.2,30.03,SW,234,3.1,5.8,22,0.00,,---,0.00,VWS V14.01,2013-01-26 14:57:00,
2013-01-26 09:58:00,23.2,-10.0,30.03,WNW,286,3.1,4.0,22,0.00,,---,0.00,VWS V14.01,2013-01-26 14:58:00,
2013-01-26 10:01:00,23.4,-9.9,30.03,West,274,8.1,8.1,22,0.00,,---,0.00,VWS V14.01,2013-01-26 15:01:00,
2013-01-26 10:02:00,23.4,-12.8,30.03,West,261,10.1,10.1,19,0.00,,---,0.00,VWS V14.01,2013-01-26 15:02:00,
2013-01-26 10:03:00,23.4,-12.8,30.03,SW,233,4.0,8.1,19,0.00,,---,0.00,VWS V14.01,2013-01-26 15:03:00,
2013-01-26 10:06:00,23.4,-12.8,30.03,SW,225,10.1,12.8,19,0.00,,---,0.00,VWS V14.01,2013-01-26 15:06:00,
2013-01-26 10:08:00,23.5,-12.6,30.03,SSW,210,5.8,8.7,19,0.00,,---,0.00,VWS V14.01,2013-01-26 15:08:00,
2013-01-26 10:11:00,23.5,-12.6,30.03,West,267,5.4,6.3,19,0.00,,---,0.00,VWS V14.01,2013-01-26 15:11:00,
2013-01-26 10:13:00,23.5,-12.6,30.03,WSW,247,4.0,4.0,19,0.00,,---,0.00,VWS V14.01,2013-01-26 15:13:00,
2013-01-26 10:16:00,23.7,-12.5,30.03,West,260,3.6,3.6,19,0.00,,---,0.00,VWS V14.01,2013-01-26 15:16:00,
2013-01-26 10:18:00,23.9,-12.4,30.03,NW,312,4.9,5.8,19,0.00,,---,0.00,VWS V14.01,2013-01-26 15:18:00,
2013-01-26 10:19:00,23.9,-12.4,30.03,NW,320,7.2,7.2,19,0.00,,---,0.00,VWS V14.01,2013-01-26 15:19:00,
2013-01-26 10:21:00,24.3,-12.1,30.03,WNW,297,5.8,6.3,19,0.00,,---,0.00,VWS V14.01,2013-01-26 15:21:00,
2013-01-26 10:23:00,24.1,-12.2,30.03,West,267,7.2,8.3,19,0.00,,---,0.00,VWS V14.01,2013-01-26 15:23:00,
2013-01-26 10:24:00,24.3,-12.1,30.03,WSW,238,4.0,4.0,19,0.00,,---,0.00,VWS V14.01,2013-01-26 15:24:00,
2013-01-26 10:26:00,24.1,-12.2,30.03,North,357,6.3,8.1,19,0.00,,---,0.00,VWS V14.01,2013-01-26 15:26:00,
2013-01-26 10:28:00,23.9,-12.4,30.03,NW,325,3.6,5.4,19,0.00,,---,0.00,VWS V14.01,2013-01-26 15:28:00,
2013-01-26 10:29:00,23.7,-12.5,30.03,NNW,327,6.7,8.3,19,0.00,,---,0.00,VWS V14.01,2013-01-26 15:29:00,
2013-01-26 10:31:00,23.5,-12.6,30.03,NNW,331,14.1,14.1,19,0.00,,---,0.00,VWS V14.01,2013-01-26 15:31:00,
2013-01-26 10:33:00,23.5,-12.6,30.03,WNW,290,5.4,8.1,19,0.00,,---,0.00,VWS V14.01,2013-01-26 15:33:00,
2013-01-26 10:34:00,23.5,-12.6,30.03,NW,315,3.1,6.3,19,0.00,,---,0.00,VWS V14.01,2013-01-26 15:34:00,
2013-01-26 10:36:00,23.7,-12.5,30.03,WNW,294,6.3,10.1,19,0.00,,---,0.00,VWS V14.01,2013-01-26 15:36:00,
2013-01-26 10:38:00,23.9,-12.4,30.03,WNW,287,8.1,8.7,19,0.00,,---,0.00,VWS V14.01,2013-01-26 15:38:00,
2013-01-26 10:39:00,23.9,-12.4,30.03,NW,312,4.0,5.8,19,0.00,,---,0.00,VWS V14.01,2013-01-26 15:39:00,
2013-01-26 10:40:00,23.9,-12.4,30.03,West,280,3.6,4.0,19,0.00,,---,0.00,VWS V14.01,2013-01-26 15:40:00,
2013-01-26 10:42:00,24.3,-12.1,30.03,WSW,246,8.7,8.7,19,0.00,,---,0.00,VWS V14.01,2013-01-26 15:42:00,
2013-01-26 10:43:00,24.4,-11.9,30.03,West,263,5.4,8.7,19,0.00,,---,0.00,VWS V14.01,2013-01-26 15:43:00,
2013-01-26 10:44:00,24.4,-11.9,30.03,NW,324,9.6,9.6,19,0.00,,---,0.00,VWS V14.01,2013-01-26 15:44:00,
2013-01-26 10:45:00,24.3,-12.1,30.03,WNW,282,8.7,12.3,19,0.00,,---,0.00,VWS V14.01,2013-01-26 15:45:00,
2013-01-26 10:47:00,24.3,-12.1,30.03,WSW,250,8.7,10.1,19,0.00,,---,0.00,VWS V14.01,2013-01-26 15:47:00,
2013-01-26 10:48:00,24.3,-12.1,30.03,WSW,254,5.8,5.8,19,0.00,,---,0.00,VWS V14.01,2013-01-26 15:48:00,
2013-01-26 10:49:00,24.4,-11.9,30.03,WNW,292,5.4,8.3,19,0.00,,---,0.00,VWS V14.01,2013-01-26 15:49:00,
2013-01-26 10:50:00,24.4,-11.9,30.06,WSW,246,7.6,7.6,19,0.00,,---,0.00,VWS V14.01,2013-01-26 15:50:00,
2013-01-26 10:52:00,24.6,-11.8,30.06,WSW,258,8.7,8.7,19,0.00,,---,0.00,VWS V14.01,2013-01-26 15:52:00,
2013-01-26 10:53:00,24.6,-11.8,30.06,West,278,7.6,10.5,19,0.00,,---,0.00,VWS V14.01,2013-01-26 15:53:00,
2013-01-26 10:54:00,24.6,-11.8,30.06,NW,317,5.4,7.6,19,0.00,,---,0.00,VWS V14.01,2013-01-26 15:54:00,
2013-01-26 10:55:00,24.6,-11.8,30.06,West,259,7.6,7.6,19,0.00,,---,0.00,VWS V14.01,2013-01-26 15:55:00,
2013-01-26 10:57:00,24.8,-11.6,30.06,WNW,297,6.3,8.3,19,0.00,,---,0.00,VWS V14.01,2013-01-26 15:57:00,
2013-01-26 10:58:00,24.6,-11.8,30.06,NNW,332,5.8,8.3,19,0.00,,---,0.00,VWS V14.01,2013-01-26 15:58:00,
2013-01-26 10:59:00,24.6,-11.8,30.06,West,265,4.9,5.8,19,0.00,,---,0.00,VWS V14.01,2013-01-26 15:59:00,
2013-01-26 11:00:00,24.8,-11.6,30.06,West,279,6.3,6.3,19,0.00,,---,0.00,VWS V14.01,2013-01-26 16:00:00,
2013-01-26 11:02:00,25.2,-11.3,30.06,NNW,327,9.6,9.6,19,0.00,,---,0.00,VWS V14.01,2013-01-26 16:02:00,
2013-01-26 11:03:00,25.2,-11.3,30.06,NW,306,9.6,9.6,19,0.00,,---,0.00,VWS V14.01,2013-01-26 16:03:00,
2013-01-26 11:04:00,25.0,-11.4,30.06,WNW,294,5.8,11.0,19,0.00,,---,0.00,VWS V14.01,2013-01-26 16:04:00,
2013-01-26 11:05:00,25.0,-11.4,30.06,NW,311,4.0,8.7,19,0.00,,---,0.00,VWS V14.01,2013-01-26 16:05:00,
2013-01-26 11:08:00,25.0,-11.4,30.06,NW,321,8.7,8.7,19,0.00,,---,0.00,VWS V14.01,2013-01-26 16:08:00,
2013-01-26 11:09:00,24.8,-11.6,30.06,West,265,11.0,11.0,19,0.00,,---,0.00,VWS V14.01,2013-01-26 16:09:00,
2013-01-26 11:10:00,25.0,-11.4,30.06,WNW,286,8.7,8.7,19,0.00,,---,0.00,VWS V14.01,2013-01-26 16:10:00,
2013-01-26 11:13:00,25.3,-11.1,30.06,WNW,296,5.4,5.4,19,0.00,,---,0.00,VWS V14.01,2013-01-26 16:13:00,
2013-01-26 11:14:00,25.3,-11.1,30.06,WNW,302,9.6,9.6,19,0.00,,---,0.00,VWS V14.01,2013-01-26 16:14:00,
2013-01-26 11:15:00,25.2,-11.3,30.06,WNW,301,8.1,11.4,19,0.00,,---,0.00,VWS V14.01,2013-01-26 16:15:00,
2013-01-26 11:18:00,25.2,-11.3,30.06,WSW,254,5.8,8.3,19,0.00,,---,0.00,VWS V14.01,2013-01-26 16:18:00,
2013-01-26 11:19:00,25.2,-11.3,30.06,WNW,286,6.3,8.3,19,0.00,,---,0.00,VWS V14.01,2013-01-26 16:19:00,
2013-01-26 11:20:00,25.2,-11.3,30.03,WNW,299,7.6,11.0,19,0.00,,---,0.00,VWS V14.01,2013-01-26 16:20:00,
2013-01-26 11:23:00,25.3,-11.1,30.03,WNW,295,7.6,10.5,19,0.00,,---,0.00,VWS V14.01,2013-01-26 16:23:00,
2013-01-26 11:24:00,25.2,-11.3,30.03,WNW,290,8.3,8.3,19,0.00,,---,0.00,VWS V14.01,2013-01-26 16:24:00,
2013-01-26 11:25:00,25.5,-11.0,30.03,South,189,6.3,6.3,19,0.00,,---,0.00,VWS V14.01,2013-01-26 16:25:00,
2013-01-26 11:28:00,25.9,-10.7,30.03,West,271,5.4,5.4,19,0.00,,---,0.00,VWS V14.01,2013-01-26 16:28:00,
2013-01-26 11:29:00,26.1,-10.5,30.03,West,261,8.1,8.1,19,0.00,,---,0.00,VWS V14.01,2013-01-26 16:29:00,
2013-01-26 11:31:00,26.4,-10.2,30.03,WSW,250,3.1,7.6,19,0.00,,---,0.00,VWS V14.01,2013-01-26 16:31:00,
2013-01-26 11:33:00,26.8,-11.0,30.03,WNW,297,5.8,6.3,18,0.00,,---,0.00,VWS V14.01,2013-01-26 16:33:00,
2013-01-26 11:34:00,26.4,-10.2,30.03,NNW,337,5.4,5.8,19,0.00,,---,0.00,VWS V14.01,2013-01-26 16:34:00,
2013-01-26 11:36:00,26.4,-10.2,30.03,West,274,4.0,8.1,19,0.00,,---,0.00,VWS V14.01,2013-01-26 16:36:00,
2013-01-26 11:38:00,26.2,-10.4,30.03,WSW,255,8.1,8.1,19,0.00,,---,0.00,VWS V14.01,2013-01-26 16:38:00,
2013-01-26 11:39:00,26.1,-10.5,30.03,WNW,297,8.7,8.7,19,0.00,,---,0.00,VWS V14.01,2013-01-26 16:39:00,
2013-01-26 11:40:00,26.1,-10.5,30.03,WNW,303,4.9,8.7,19,0.00,,---,0.00,VWS V14.01,2013-01-26 16:40:00,
2013-01-26 11:41:00,26.1,-10.5,30.03,West,260,8.1,8.7,19,0.00,,---,0.00,VWS V14.01,2013-01-26 16:41:00,
2013-01-26 11:43:00,26.1,-10.5,30.03,NNW,327,4.9,6.3,19,0.00,,---,0.00,VWS V14.01,2013-01-26 16:43:00,
2013-01-26 11:45:00,26.1,-10.5,30.03,WNW,296,4.0,7.6,19,0.00,,---,0.00,VWS V14.01,2013-01-26 16:45:00,
2013-01-26 11:46:00,26.2,-10.4,30.03,West,270,7.2,7.2,19,0.00,,---,0.00,VWS V14.01,2013-01-26 16:46:00,
2013-01-26 11:48:00,26.6,-10.1,30.03,West,262,9.6,9.6,19,0.00,,---,0.00,VWS V14.01,2013-01-26 16:48:00,
2013-01-26 11:50:00,27.0,-10.9,30.03,SW,226,7.6,11.0,18,0.00,,---,0.00,VWS V14.01,2013-01-26 16:50:00,
2013-01-26 11:51:00,27.0,-10.9,30.06,WSW,237,11.9,11.9,18,0.00,,---,0.00,VWS V14.01,2013-01-26 16:51:00,
2013-01-26 11:53:00,26.8,-11.0,30.06,WSW,246,7.6,9.6,18,0.00,,---,0.00,VWS V14.01,2013-01-26 16:53:00,
2013-01-26 11:55:00,26.8,-11.0,30.06,West,281,9.2,10.5,18,0.00,,---,0.00,VWS V14.01,2013-01-26 16:55:00,
2013-01-26 11:56:00,27.0,-10.9,30.06,NW,314,10.1,10.1,18,0.00,,---,0.00,VWS V14.01,2013-01-26 16:56:00,
2013-01-26 11:58:00,26.6,-10.1,30.06,WSW,247,5.4,5.8,19,0.00,,---,0.00,VWS V14.01,2013-01-26 16:58:00,
2013-01-26 12:00:00,26.4,-10.2,30.06,SW,231,5.8,13.2,19,0.00,,---,0.00,VWS V14.01,2013-01-26 17:00:00,
2013-01-26 12:01:00,26.4,-10.2,30.06,WSW,241,3.6,4.9,19,0.00,,---,0.00,VWS V14.01,2013-01-26 17:01:00,
2013-01-26 12:03:00,26.4,-10.2,30.06,West,272,6.3,8.7,19,0.00,,---,0.00,VWS V14.01,2013-01-26 17:03:00,
2013-01-26 12:05:00,26.2,-10.4,30.06,WNW,283,6.7,10.1,19,0.00,,---,0.00,VWS V14.01,2013-01-26 17:05:00,
2013-01-26 12:06:00,26.1,-10.5,30.06,North,353,8.7,10.1,19,0.00,,---,0.00,VWS V14.01,2013-01-26 17:06:00,
2013-01-26 12:08:00,25.3,-11.1,30.06,NW,306,8.1,15.0,19,0.00,,---,0.00,VWS V14.01,2013-01-26 17:08:00,
2013-01-26 12:10:00,25.3,-11.1,30.06,West,278,8.3,8.7,19,0.00,,---,0.00,VWS V14.01,2013-01-26 17:10:00,
2013-01-26 12:11:00,25.3,-11.1,30.06,West,281,7.6,7.6,19,0.00,,---,0.00,VWS V14.01,2013-01-26 17:11:00,
2013-01-26 12:14:00,25.3,-11.1,30.06,West,279,5.4,8.7,19,0.00,,---,0.00,VWS V14.01,2013-01-26 17:14:00,
2013-01-26 12:16:00,25.3,-11.1,30.06,WSW,243,8.7,8.7,19,0.00,,---,0.00,VWS V14.01,2013-01-26 17:16:00,
2013-01-26 12:19:00,26.4,-10.2,30.06,NW,304,4.0,4.0,19,0.00,,---,0.00,VWS V14.01,2013-01-26 17:19:00,
2013-01-26 12:21:00,27.0,-10.9,30.03,West,263,4.9,8.7,18,0.00,,---,0.00,VWS V14.01,2013-01-26 17:21:00,
2013-01-26 12:24:00,27.0,-10.9,30.03,WSW,245,3.6,5.8,18,0.00,,---,0.00,VWS V14.01,2013-01-26 17:24:00,
2013-01-26 12:26:00,27.0,-10.9,30.03,WSW,257,6.3,6.3,18,0.00,,---,0.00,VWS V14.01,2013-01-26 17:26:00,
2013-01-26 12:29:00,27.0,-10.9,30.03,SSW,200,3.6,8.3,18,0.00,,---,0.00,VWS V14.01,2013-01-26 17:29:00,
2013-01-26 12:31:00,27.5,-10.4,30.03,WSW,243,8.7,10.1,18,0.00,,---,0.00,VWS V14.01,2013-01-26 17:31:00,
2013-01-26 12:32:00,27.5,-10.4,30.03,NW,304,7.2,10.5,18,0.00,,---,0.00,VWS V14.01,2013-01-26 17:32:00,
2013-01-26 12:34:00,27.5,-10.4,30.03,West,260,5.4,7.6,18,0.00,,---,0.00,VWS V14.01,2013-01-26 17:34:00,
2013-01-26 12:36:00,27.9,-10.1,30.03,WNW,289,7.2,7.6,18,0.00,,---,0.00,VWS V14.01,2013-01-26 17:36:00,
2013-01-26 12:37:00,27.9,-10.1,30.03,West,271,5.8,5.8,18,0.00,,---,0.00,VWS V14.01,2013-01-26 17:37:00,
2013-01-26 12:39:00,28.4,-9.7,30.03,NW,314,5.8,5.8,18,0.00,,---,0.00,VWS V14.01,2013-01-26 17:39:00,
2013-01-26 12:41:00,28.6,-9.5,30.03,WNW,295,3.6,5.8,18,0.00,,---,0.00,VWS V14.01,2013-01-26 17:41:00,
2013-01-26 12:42:00,28.6,-9.5,30.03,NW,324,3.6,3.6,18,0.00,,---,0.00,VWS V14.01,2013-01-26 17:42:00,
2013-01-26 12:44:00,28.9,-9.2,30.03,NNW,348,5.4,5.4,18,0.00,,---,0.00,VWS V14.01,2013-01-26 17:44:00,
2013-01-26 12:46:00,28.6,-9.5,30.03,NW,320,4.0,5.8,18,0.00,,---,0.00,VWS V14.01,2013-01-26 17:46:00,
2013-01-26 12:47:00,28.8,-9.4,30.03,WNW,300,3.6,5.8,18,0.00,,---,0.00,VWS V14.01,2013-01-26 17:47:00,
2013-01-26 12:50:00,29.1,-12.8,30.03,West,260,8.1,8.1,15,0.00,,---,0.00,VWS V14.01,2013-01-26 17:50:00,
2013-01-26 12:51:00,28.9,-12.9,30.03,NW,324,5.4,5.8,15,0.00,,---,0.00,VWS V14.01,2013-01-26 17:51:00,
2013-01-26 12:52:00,28.8,-13.1,30.03,WSW,258,6.3,6.3,15,0.00,,---,0.00,VWS V14.01,2013-01-26 17:52:00,
2013-01-26 12:55:00,29.1,-12.8,30.03,WNW,297,13.2,13.2,15,0.00,,---,0.00,VWS V14.01,2013-01-26 17:55:00,
2013-01-26 12:56:00,28.6,-13.2,30.03,WNW,296,8.1,11.4,15,0.00,,---,0.00,VWS V14.01,2013-01-26 17:56:00,
2013-01-26 12:57:00,28.4,-12.1,30.03,West,259,8.1,13.6,16,0.00,,---,0.00,VWS V14.01,2013-01-26 17:57:00,
2013-01-26 13:00:00,28.8,-13.1,30.03,WNW,295,6.7,10.1,15,0.00,,---,0.00,VWS V14.01,2013-01-26 18:00:00,
2013-01-26 13:01:00,28.6,-13.2,30.03,West,261,5.4,8.1,15,0.00,,---,0.00,VWS V14.01,2013-01-26 18:01:00,
2013-01-26 13:02:00,28.6,-13.2,30.03,SW,233,4.0,7.6,15,0.00,,---,0.00,VWS V14.01,2013-01-26 18:02:00,
2013-01-26 13:05:00,29.1,-12.8,30.00,West,271,3.6,6.3,15,0.00,,---,0.00,VWS V14.01,2013-01-26 18:05:00,
2013-01-26 13:07:00,29.1,-12.8,30.00,WNW,289,3.6,4.0,15,0.00,,---,0.00,VWS V14.01,2013-01-26 18:07:00,
2013-01-26 13:10:00,28.9,-12.9,30.00,WNW,291,10.1,10.1,15,0.00,,---,0.00,VWS V14.01,2013-01-26 18:10:00,
2013-01-26 13:12:00,28.6,-13.2,30.00,WNW,291,8.3,8.3,15,0.00,,---,0.00,VWS V14.01,2013-01-26 18:12:00,
2013-01-26 13:16:00,28.6,-13.2,30.00,WSW,257,8.1,8.1,15,0.00,,---,0.00,VWS V14.01,2013-01-26 18:16:00,
2013-01-26 13:17:00,28.6,-13.2,30.00,WSW,246,11.0,11.0,15,0.00,,---,0.00,VWS V14.01,2013-01-26 18:17:00,
2013-01-26 13:18:00,28.4,-12.1,30.00,NW,325,7.2,11.0,16,0.00,,---,0.00,VWS V14.01,2013-01-26 18:18:00,
2013-01-26 13:21:00,28.6,-13.2,30.00,West,273,5.4,5.4,15,0.00,,---,0.00,VWS V14.01,2013-01-26 18:21:00,
2013-01-26 13:22:00,28.6,-13.2,30.00,NW,324,5.8,6.3,15,0.00,,---,0.00,VWS V14.01,2013-01-26 18:22:00,
2013-01-26 13:23:00,28.6,-13.2,30.00,WSW,258,5.8,5.8,15,0.00,,---,0.00,VWS V14.01,2013-01-26 18:23:00,
2013-01-26 13:26:00,29.1,-12.8,30.00,NW,312,4.9,6.3,15,0.00,,---,0.00,VWS V14.01,2013-01-26 18:26:00,
2013-01-26 13:27:00,28.8,-13.1,30.00,NW,315,7.6,7.6,15,0.00,,---,0.00,VWS V14.01,2013-01-26 18:27:00,
2013-01-26 13:28:00,28.9,-12.9,30.00,SW,218,2.7,2.7,15,0.00,,---,0.00,VWS V14.01,2013-01-26 18:28:00,
2013-01-26 13:31:00,29.5,-12.5,30.00,SW,225,8.1,8.3,15,0.00,,---,0.00,VWS V14.01,2013-01-26 18:31:00,
2013-01-26 13:32:00,29.3,-12.6,30.00,West,281,5.8,8.1,15,0.00,,---,0.00,VWS V14.01,2013-01-26 18:32:00,
2013-01-26 13:33:00,29.3,-12.6,30.00,SSW,197,5.4,8.1,15,0.00,,---,0.00,VWS V14.01,2013-01-26 18:33:00,
2013-01-26 13:36:00,29.8,-12.2,30.00,WSW,237,5.4,8.1,15,0.00,,---,0.00,VWS V14.01,2013-01-26 18:36:00,
2013-01-26 13:37:00,29.7,-12.3,30.00,SW,225,8.3,10.5,15,0.00,,---,0.00,VWS V14.01,2013-01-26 18:37:00,
2013-01-26 13:38:00,29.7,-12.3,30.00,SW,220,8.1,8.3,15,0.00,,---,0.00,VWS V14.01,2013-01-26 18:38:00,
2013-01-26 13:41:00,29.7,-12.3,30.00,WSW,256,6.3,6.3,15,0.00,,---,0.00,VWS V14.01,2013-01-26 18:41:00,
2013-01-26 13:42:00,29.5,-12.5,30.00,West,279,6.3,10.5,15,0.00,,---,0.00,VWS V14.01,2013-01-26 18:42:00,
2013-01-26 13:43:00,29.5,-12.5,30.00,NW,308,6.3,6.3,15,0.00,,---,0.00,VWS V14.01,2013-01-26 18:43:00,
2013-01-26 13:46:00,29.7,-12.3,30.00,West,279,5.8,7.6,15,0.00,,---,0.00,VWS V14.01,2013-01-26 18:46:00,
2013-01-26 13:48:00,29.8,-12.2,30.00,NW,317,4.5,5.8,15,0.00,,---,0.00,VWS V14.01,2013-01-26 18:48:00,
2013-01-26 13:51:00,28.9,-12.9,30.03,WNW,289,5.8,8.3,15,0.00,,---,0.00,VWS V14.01,2013-01-26 18:51:00,
2013-01-26 13:53:00,28.9,-12.9,30.03,West,263,6.3,6.3,15,0.00,,---,0.00,VWS V14.01,2013-01-26 18:53:00,
2013-01-26 13:56:00,28.9,-12.9,30.03,WSW,254,5.8,7.6,15,0.00,,---,0.00,VWS V14.01,2013-01-26 18:56:00,
2013-01-26 13:58:00,29.1,-12.8,30.03,NNW,336,4.0,4.0,15,0.00,,---,0.00,VWS V14.01,2013-01-26 18:58:00,
2013-01-26 14:01:00,29.1,-12.8,30.03,NW,306,8.3,8.3,15,0.00,,---,0.00,VWS V14.01,2013-01-26 19:01:00,
2013-01-26 14:03:00,28.9,-12.9,30.03,WSW,244,5.8,7.6,15,0.00,,---,0.00,VWS V14.01,2013-01-26 19:03:00,
2013-01-26 14:06:00,28.8,-13.1,30.03,North,353,4.0,7.6,15,0.00,,---,0.00,VWS V14.01,2013-01-26 19:06:00,
2013-01-26 14:08:00,28.4,-12.1,30.03,NNW,345,8.3,8.3,16,0.00,,---,0.00,VWS V14.01,2013-01-26 19:08:00,
2013-01-26 14:09:00,28.2,-12.2,30.03,NW,309,5.4,8.3,16,0.00,,---,0.00,VWS V14.01,2013-01-26 19:09:00,
2013-01-26 14:11:00,28.2,-12.2,30.03,SSW,211,5.4,8.1,16,0.00,,---,0.00,VWS V14.01,2013-01-26 19:11:00,
2013-01-26 14:13:00,28.2,-12.2,30.03,WNW,282,4.0,5.8,16,0.00,,---,0.00,VWS V14.01,2013-01-26 19:13:00,
2013-01-26 14:14:00,28.2,-12.2,30.03,WNW,287,8.3,8.3,16,0.00,,---,0.00,VWS V14.01,2013-01-26 19:14:00,
2013-01-26 14:17:00,28.2,-12.2,30.03,NW,310,5.8,5.8,16,0.00,,---,0.00,VWS V14.01,2013-01-26 19:17:00,
2013-01-26 14:18:00,28.2,-12.2,30.03,West,274,5.8,6.3,16,0.00,,---,0.00,VWS V14.01,2013-01-26 19:18:00,
2013-01-26 14:19:00,28.2,-12.2,30.03,WNW,285,7.6,7.6,16,0.00,,---,0.00,VWS V14.01,2013-01-26 19:19:00,
2013-01-26 14:22:00,28.4,-12.1,30.03,NW,308,5.8,10.5,16,0.00,,---,0.00,VWS V14.01,2013-01-26 19:22:00,
2013-01-26 14:23:00,28.2,-12.2,30.03,WSW,248,6.3,8.3,16,0.00,,---,0.00,VWS V14.01,2013-01-26 19:23:00,
2013-01-26 14:24:00,28.0,-12.4,30.03,NW,311,8.1,8.1,16,0.00,,---,0.00,VWS V14.01,2013-01-26 19:24:00,
2013-01-26 14:27:00,28.0,-12.4,30.03,SW,216,4.9,5.8,16,0.00,,---,0.00,VWS V14.01,2013-01-26 19:27:00,
2013-01-26 14:28:00,28.2,-12.2,30.03,NNW,343,11.0,11.0,16,0.00,,---,0.00,VWS V14.01,2013-01-26 19:28:00,
2013-01-26 14:29:00,28.2,-12.2,30.03,NNW,340,11.0,11.0,16,0.00,,---,0.00,VWS V14.01,2013-01-26 19:29:00,
2013-01-26 14:32:00,27.9,-12.5,30.03,WSW,254,7.6,7.6,16,0.00,,---,0.00,VWS V14.01,2013-01-26 19:32:00,
2013-01-26 14:34:00,28.0,-12.4,30.03,WSW,241,6.3,11.0,16,0.00,,---,0.00,VWS V14.01,2013-01-26 19:34:00,
2013-01-26 14:37:00,28.6,-13.2,30.03,NW,308,8.3,9.2,15,0.00,,---,0.00,VWS V14.01,2013-01-26 19:37:00,
2013-01-26 14:39:00,28.4,-12.1,30.03,NNW,337,8.3,8.3,16,0.00,,---,0.00,VWS V14.01,2013-01-26 19:39:00,
2013-01-26 14:42:00,28.2,-12.2,30.03,SW,224,8.3,10.5,16,0.00,,---,0.00,VWS V14.01,2013-01-26 19:42:00,
2013-01-26 14:44:00,28.0,-12.4,30.03,WSW,252,5.8,11.0,16,0.00,,---,0.00,VWS V14.01,2013-01-26 19:44:00,
2013-01-26 14:47:00,28.4,-12.1,30.03,NNW,335,3.6,5.8,16,0.00,,---,0.00,VWS V14.01,2013-01-26 19:47:00,
2013-01-26 14:49:00,28.2,-12.2,30.03,West,277,7.6,8.7,16,0.00,,---,0.00,VWS V14.01,2013-01-26 19:49:00,
2013-01-26 14:52:00,28.0,-12.4,30.03,WNW,292,12.3,15.0,16,0.00,,---,0.00,VWS V14.01,2013-01-26 19:52:00,
2013-01-26 14:54:00,27.9,-12.5,30.03,NNW,334,6.3,6.7,16,0.00,,---,0.00,VWS V14.01,2013-01-26 19:54:00,
2013-01-26 14:58:00,28.0,-12.4,30.03,WNW,282,3.6,6.3,16,0.00,,---,0.00,VWS V14.01,2013-01-26 19:58:00,
2013-01-26 14:59:00,28.2,-12.2,30.03,WSW,249,5.4,5.4,16,0.00,,---,0.00,VWS V14.01,2013-01-26 19:59:00,
2013-01-26 15:03:00,28.0,-12.4,30.03,NW,314,6.7,7.6,16,0.00,,---,0.00,VWS V14.01,2013-01-26 20:03:00,
2013-01-26 15:04:00,27.9,-12.5,30.03,NW,318,4.0,5.8,16,0.00,,---,0.00,VWS V14.01,2013-01-26 20:04:00,
2013-01-26 15:05:00,28.0,-12.4,30.03,WNW,287,7.2,8.7,16,0.00,,---,0.00,VWS V14.01,2013-01-26 20:05:00,
2013-01-26 15:08:00,27.9,-12.5,30.03,NNW,340,7.6,11.0,16,0.00,,---,0.00,VWS V14.01,2013-01-26 20:08:00,
2013-01-26 15:09:00,27.9,-12.5,30.03,NNW,327,6.3,6.3,16,0.00,,---,0.00,VWS V14.01,2013-01-26 20:09:00,
2013-01-26 15:10:00,27.9,-12.5,30.03,NW,318,5.8,6.3,16,0.00,,---,0.00,VWS V14.01,2013-01-26 20:10:00,
2013-01-26 15:13:00,27.9,-12.5,30.03,NNW,348,8.3,10.1,16,0.00,,---,0.00,VWS V14.01,2013-01-26 20:13:00,
2013-01-26 15:14:00,27.7,-12.6,30.03,NW,308,3.1,6.3,16,0.00,,---,0.00,VWS V14.01,2013-01-26 20:14:00,
2013-01-26 15:15:00,27.7,-12.6,30.03,WSW,240,3.6,3.6,16,0.00,,---,0.00,VWS V14.01,2013-01-26 20:15:00,
2013-01-26 15:18:00,27.9,-12.5,30.03,West,270,5.4,5.4,16,0.00,,---,0.00,VWS V14.01,2013-01-26 20:18:00,
2013-01-26 15:19:00,27.7,-12.6,30.03,West,259,3.6,8.3,16,0.00,,---,0.00,VWS V14.01,2013-01-26 20:19:00,
2013-01-26 15:20:00,27.7,-12.6,30.06,West,261,8.7,8.7,16,0.00,,---,0.00,VWS V14.01,2013-01-26 20:20:00,
2013-01-26 15:23:00,27.5,-12.8,30.06,WSW,253,5.8,5.8,16,0.00,,---,0.00,VWS V14.01,2013-01-26 20:23:00,
2013-01-26 15:24:00,27.5,-12.8,30.06,NNW,336,6.7,8.1,16,0.00,,---,0.00,VWS V14.01,2013-01-26 20:24:00,
2013-01-26 15:25:00,27.5,-12.8,30.06,NW,305,7.6,7.6,16,0.00,,---,0.00,VWS V14.01,2013-01-26 20:25:00,
2013-01-26 15:28:00,27.3,-12.9,30.06,NW,308,8.7,8.7,16,0.00,,---,0.00,VWS V14.01,2013-01-26 20:28:00,
2013-01-26 15:29:00,27.3,-12.9,30.06,NW,314,10.1,10.1,16,0.00,,---,0.00,VWS V14.01,2013-01-26 20:29:00,
2013-01-26 15:30:00,27.3,-12.9,30.06,West,267,5.4,10.1,16,0.00,,---,0.00,VWS V14.01,2013-01-26 20:30:00,
2013-01-26 15:33:00,27.5,-12.8,30.06,WNW,289,7.6,8.3,16,0.00,,---,0.00,VWS V14.01,2013-01-26 20:33:00,
2013-01-26 15:35:00,27.5,-12.8,30.06,WNW,288,5.4,11.0,16,0.00,,---,0.00,VWS V14.01,2013-01-26 20:35:00,
2013-01-26 15:38:00,27.7,-12.6,30.06,WNW,301,8.7,8.7,16,0.00,,---,0.00,VWS V14.01,2013-01-26 20:38:00,
2013-01-26 15:40:00,27.7,-12.6,30.06,WSW,248,5.4,5.4,16,0.00,,---,0.00,VWS V14.01,2013-01-26 20:40:00,
2013-01-26 15:43:00,27.7,-12.6,30.06,SW,236,5.8,6.3,16,0.00,,---,0.00,VWS V14.01,2013-01-26 20:43:00,
2013-01-26 15:45:00,27.7,-12.6,30.06,West,268,6.3,6.3,16,0.00,,---,0.00,VWS V14.01,2013-01-26 20:45:00,
2013-01-26 15:48:00,27.7,-12.6,30.06,WSW,245,4.9,10.1,16,0.00,,---,0.00,VWS V14.01,2013-01-26 20:48:00,
2013-01-26 15:50:00,27.7,-12.6,30.06,WSW,257,8.1,8.1,16,0.00,,---,0.00,VWS V14.01,2013-01-26 20:50:00,
2013-01-26 15:51:00,27.7,-12.6,30.06,NNW,332,4.9,8.1,16,0.00,,---,0.00,VWS V14.01,2013-01-26 20:51:00,
2013-01-26 15:53:00,27.5,-12.8,30.06,NW,307,4.9,5.8,16,0.00,,---,0.00,VWS V14.01,2013-01-26 20:53:00,
2013-01-26 15:55:00,27.5,-12.8,30.06,WSW,239,3.6,4.9,16,0.00,,---,0.00,VWS V14.01,2013-01-26 20:55:00,
2013-01-26 15:56:00,27.5,-12.8,30.06,WNW,295,5.8,5.8,16,0.00,,---,0.00,VWS V14.01,2013-01-26 20:56:00,
2013-01-26 15:58:00,27.5,-12.8,30.06,WSW,257,5.4,5.4,16,0.00,,---,0.00,VWS V14.01,2013-01-26 20:58:00,
2013-01-26 16:00:00,27.5,-12.8,30.06,NNW,338,8.3,8.3,16,0.00,,---,0.00,VWS V14.01,2013-01-26 21:00:00,
2013-01-26 16:01:00,27.5,-12.8,30.06,NW,317,7.6,8.3,16,0.00,,---,0.00,VWS V14.01,2013-01-26 21:01:00,
2013-01-26 16:03:00,27.3,-12.9,30.06,WNW,282,7.6,8.7,16,0.00,,---,0.00,VWS V14.01,2013-01-26 21:03:00,
2013-01-26 16:05:00,27.3,-12.9,30.06,West,268,5.8,5.8,16,0.00,,---,0.00,VWS V14.01,2013-01-26 21:05:00,
2013-01-26 16:06:00,27.3,-12.9,30.06,West,274,7.6,7.6,16,0.00,,---,0.00,VWS V14.01,2013-01-26 21:06:00,
2013-01-26 16:09:00,27.3,-12.9,30.06,West,269,4.5,5.4,16,0.00,,---,0.00,VWS V14.01,2013-01-26 21:09:00,
2013-01-26 16:10:00,27.3,-12.9,30.06,West,264,5.4,8.1,16,0.00,,---,0.00,VWS V14.01,2013-01-26 21:10:00,
2013-01-26 16:11:00,27.3,-12.9,30.06,West,260,4.9,8.1,16,0.00,,---,0.00,VWS V14.01,2013-01-26 21:11:00,
2013-01-26 16:14:00,27.1,-13.1,30.06,WSW,241,11.0,11.0,16,0.00,,---,0.00,VWS V14.01,2013-01-26 21:14:00,
2013-01-26 16:15:00,27.1,-13.1,30.06,NW,308,3.1,10.5,16,0.00,,---,0.00,VWS V14.01,2013-01-26 21:15:00,
2013-01-26 16:16:00,27.1,-13.1,30.06,NW,308,3.1,10.5,16,0.00,,---,0.00,VWS V14.01,2013-01-26 21:16:00,
2013-01-26 16:19:00,27.1,-13.1,30.06,WNW,293,5.8,5.8,16,0.00,,---,0.00,VWS V14.01,2013-01-26 21:19:00,
2013-01-26 16:20:00,27.1,-13.1,30.06,WNW,298,6.3,8.7,16,0.00,,---,0.00,VWS V14.01,2013-01-26 21:20:00,
2013-01-26 16:21:00,27.1,-13.1,30.06,WNW,298,6.3,8.7,16,0.00,,---,0.00,VWS V14.01,2013-01-26 21:21:00,
2013-01-26 16:24:00,27.1,-13.1,30.06,NW,305,4.0,4.0,16,0.00,,---,0.00,VWS V14.01,2013-01-26 21:24:00,
2013-01-26 16:26:00,27.1,-13.1,30.06,NW,309,5.8,13.2,16,0.00,,---,0.00,VWS V14.01,2013-01-26 21:26:00,
2013-01-26 16:29:00,27.1,-13.1,30.06,WNW,299,4.0,6.3,16,0.00,,---,0.00,VWS V14.01,2013-01-26 21:29:00,
2013-01-26 16:31:00,27.1,-13.1,30.06,West,264,2.7,7.6,16,0.00,,---,0.00,VWS V14.01,2013-01-26 21:31:00,
2013-01-26 16:34:00,27.1,-13.1,30.06,West,278,4.0,4.9,16,0.00,,---,0.00,VWS V14.01,2013-01-26 21:34:00,
2013-01-26 16:36:00,27.0,-13.2,30.06,West,264,5.8,8.7,16,0.00,,---,0.00,VWS V14.01,2013-01-26 21:36:00,
2013-01-26 16:39:00,27.0,-13.2,30.06,WNW,287,4.0,5.4,16,0.00,,---,0.00,VWS V14.01,2013-01-26 21:39:00,
2013-01-26 16:41:00,27.0,-13.2,30.06,WSW,245,5.8,6.7,16,0.00,,---,0.00,VWS V14.01,2013-01-26 21:41:00,
2013-01-26 16:44:00,27.0,-13.2,30.06,WSW,238,7.6,8.1,16,0.00,,---,0.00,VWS V14.01,2013-01-26 21:44:00,
2013-01-26 16:46:00,27.0,-13.2,30.06,West,267,3.1,3.1,16,0.00,,---,0.00,VWS V14.01,2013-01-26 21:46:00,
2013-01-26 16:49:00,26.8,-13.4,30.06,West,278,3.6,4.0,16,0.00,,---,0.00,VWS V14.01,2013-01-26 21:49:00,
2013-01-26 16:51:00,26.8,-13.4,30.06,West,265,5.4,5.4,16,0.00,,---,0.00,VWS V14.01,2013-01-26 21:51:00,
2013-01-26 16:52:00,26.8,-13.4,30.06,WSW,258,3.6,5.4,16,0.00,,---,0.00,VWS V14.01,2013-01-26 21:52:00,
2013-01-26 16:54:00,26.8,-13.4,30.06,North,353,3.6,6.3,16,0.00,,---,0.00,VWS V14.01,2013-01-26 21:54:00,
2013-01-26 16:56:00,26.8,-13.4,30.06,WSW,244,6.3,8.7,16,0.00,,---,0.00,VWS V14.01,2013-01-26 21:56:00,
2013-01-26 16:57:00,26.8,-13.4,30.06,West,263,11.0,11.0,16,0.00,,---,0.00,VWS V14.01,2013-01-26 21:57:00,
2013-01-26 16:59:00,26.8,-13.4,30.06,WNW,284,3.6,4.0,16,0.00,,---,0.00,VWS V14.01,2013-01-26 21:59:00,
2013-01-26 17:01:00,26.6,-13.5,30.06,West,266,4.9,5.8,16,0.00,,---,0.00,VWS V14.01,2013-01-26 22:01:00,
2013-01-26 17:02:00,26.4,-13.7,30.06,West,266,4.0,4.0,16,0.00,,---,0.00,VWS V14.01,2013-01-26 22:02:00,
2013-01-26 17:04:00,26.4,-13.7,30.06,West,275,5.4,6.3,16,0.00,,---,0.00,VWS V14.01,2013-01-26 22:04:00,
2013-01-26 17:06:00,26.2,-13.8,30.06,WNW,292,3.6,8.1,16,0.00,,---,0.00,VWS V14.01,2013-01-26 22:06:00,
2013-01-26 17:07:00,26.2,-13.8,30.06,WNW,299,3.1,8.1,16,0.00,,---,0.00,VWS V14.01,2013-01-26 22:07:00,
2013-01-26 17:09:00,26.1,-14.0,30.06,West,266,5.4,5.4,16,0.00,,---,0.00,VWS V14.01,2013-01-26 22:09:00,
2013-01-26 17:11:00,26.1,-14.0,30.06,WNW,283,2.7,3.6,16,0.00,,---,0.00,VWS V14.01,2013-01-26 22:11:00,
2013-01-26 17:12:00,26.1,-14.0,30.06,West,261,3.6,3.6,16,0.00,,---,0.00,VWS V14.01,2013-01-26 22:12:00,
2013-01-26 17:14:00,26.1,-14.0,30.06,West,262,3.6,6.3,16,0.00,,---,0.00,VWS V14.01,2013-01-26 22:14:00,
2013-01-26 17:16:00,26.1,-14.0,30.06,WSW,255,3.6,5.8,16,0.00,,---,0.00,VWS V14.01,2013-01-26 22:16:00,
2013-01-26 17:17:00,26.1,-14.0,30.06,WSW,255,3.6,5.8,16,0.00,,---,0.00,VWS V14.01,2013-01-26 22:17:00,
2013-01-26 17:19:00,25.9,-14.1,30.06,WSW,257,4.9,4.9,16,0.00,,---,0.00,VWS V14.01,2013-01-26 22:19:00,
2013-01-26 17:22:00,25.7,-14.3,30.09,WSW,253,2.7,7.2,16,0.00,,---,0.00,VWS V14.01,2013-01-26 22:22:00,
2013-01-26 17:24:00,25.5,-14.4,30.09,West,274,2.7,3.6,16,0.00,,---,0.00,VWS V14.01,2013-01-26 22:24:00,
2013-01-26 17:27:00,25.3,-14.6,30.09,WNW,302,2.7,3.6,16,0.00,,---,0.00,VWS V14.01,2013-01-26 22:27:00,
2013-01-26 17:30:00,25.3,-14.6,30.09,West,260,6.3,6.3,16,0.00,,---,0.00,VWS V14.01,2013-01-26 22:30:00,
2013-01-26 17:32:00,25.2,-14.7,30.09,WSW,258,3.6,3.6,16,0.00,,---,0.00,VWS V14.01,2013-01-26 22:32:00,
2013-01-26 17:35:00,25.2,-14.7,30.09,SW,234,4.0,4.0,16,0.00,,---,0.00,VWS V14.01,2013-01-26 22:35:00,
2013-01-26 17:37:00,25.2,-14.7,30.09,West,261,0.0,0.0,16,0.00,,---,0.00,VWS V14.01,2013-01-26 22:37:00,
2013-01-26 17:40:00,25.0,-14.9,30.09,West,261,0.0,2.7,16,0.00,,---,0.00,VWS V14.01,2013-01-26 22:40:00,
2013-01-26 17:42:00,24.8,-13.8,30.09,WNW,293,0.0,0.0,17,0.00,,---,0.00,VWS V14.01,2013-01-26 22:42:00,
2013-01-26 17:45:00,24.4,-14.1,30.09,WNW,283,2.7,5.4,17,0.00,,---,0.00,VWS V14.01,2013-01-26 22:45:00,
2013-01-26 17:47:00,24.4,-14.1,30.09,WNW,283,3.1,3.1,17,0.00,,---,0.00,VWS V14.01,2013-01-26 22:47:00,
2013-01-26 17:50:00,24.1,-14.4,30.09,WSW,252,4.0,4.0,17,0.00,,---,0.00,VWS V14.01,2013-01-26 22:50:00,
2013-01-26 17:52:00,23.9,-14.6,30.12,WSW,252,0.0,2.2,17,0.00,,---,0.00,VWS V14.01,2013-01-26 22:52:00,
2013-01-26 17:55:00,23.9,-14.6,30.12,WSW,252,0.0,0.0,17,0.00,,---,0.00,VWS V14.01,2013-01-26 22:55:00,
2013-01-26 17:57:00,23.9,-14.6,30.12,WSW,252,2.2,2.7,17,0.00,,---,0.00,VWS V14.01,2013-01-26 22:57:00,
2013-01-26 18:00:00,23.7,-14.7,30.12,WSW,246,3.6,3.6,17,0.00,,---,0.00,VWS V14.01,2013-01-26 23:00:00,
2013-01-26 18:02:00,23.5,-14.9,30.12,WNW,288,4.0,4.0,17,0.00,,---,0.00,VWS V14.01,2013-01-26 23:02:00,
2013-01-26 18:05:00,23.5,-14.9,30.12,West,264,3.6,3.6,17,0.00,,---,0.00,VWS V14.01,2013-01-26 23:05:00,
2013-01-26 18:07:00,23.5,-14.9,30.12,WNW,296,2.7,4.0,17,0.00,,---,0.00,VWS V14.01,2013-01-26 23:07:00,
2013-01-26 18:08:00,23.5,-14.9,30.12,WSW,258,3.1,4.0,17,0.00,,---,0.00,VWS V14.01,2013-01-26 23:08:00,
2013-01-26 18:10:00,23.7,-14.7,30.12,West,261,2.2,2.7,17,0.00,,---,0.00,VWS V14.01,2013-01-26 23:10:00,
2013-01-26 18:12:00,23.5,-14.9,30.12,West,270,5.4,7.6,17,0.00,,---,0.00,VWS V14.01,2013-01-26 23:12:00,
2013-01-26 18:13:00,23.5,-14.9,30.12,West,270,3.6,5.4,17,0.00,,---,0.00,VWS V14.01,2013-01-26 23:13:00,
2013-01-26 18:16:00,23.5,-14.9,30.12,SW,228,2.7,5.4,17,0.00,,---,0.00,VWS V14.01,2013-01-26 23:16:00,
2013-01-26 18:18:00,23.5,-14.9,30.12,SW,228,2.2,2.2,17,0.00,,---,0.00,VWS V14.01,2013-01-26 23:18:00,
2013-01-26 18:21:00,23.5,-14.9,30.12,WSW,243,6.3,6.3,17,0.00,,---,0.00,VWS V14.01,2013-01-26 23:21:00,
2013-01-26 18:23:00,23.5,-14.9,30.12,West,259,3.1,5.4,17,0.00,,---,0.00,VWS V14.01,2013-01-26 23:23:00,
2013-01-26 18:26:00,23.4,-15.0,30.12,WNW,301,2.7,2.7,17,0.00,,---,0.00,VWS V14.01,2013-01-26 23:26:00,
2013-01-26 18:28:00,23.5,-14.9,30.12,WNW,286,0.0,3.1,17,0.00,,---,0.00,VWS V14.01,2013-01-26 23:28:00,
2013-01-26 18:31:00,23.5,-14.9,30.12,WNW,292,3.6,5.4,17,0.00,,---,0.00,VWS V14.01,2013-01-26 23:31:00,
2013-01-26 18:33:00,23.7,-14.7,30.12,West,280,2.2,3.6,17,0.00,,---,0.00,VWS V14.01,2013-01-26 23:33:00,
2013-01-26 18:36:00,23.5,-14.9,30.12,West,274,2.7,2.7,17,0.00,,---,0.00,VWS V14.01,2013-01-26 23:36:00,
2013-01-26 18:38:00,23.5,-14.9,30.12,West,279,2.7,4.9,17,0.00,,---,0.00,VWS V14.01,2013-01-26 23:38:00,
2013-01-26 18:41:00,23.4,-15.0,30.12,West,279,2.7,2.7,17,0.00,,---,0.00,VWS V14.01,2013-01-26 23:41:00,
2013-01-26 18:43:00,23.2,-15.2,30.12,WSW,251,2.7,3.1,17,0.00,,---,0.00,VWS V14.01,2013-01-26 23:43:00,
2013-01-26 18:44:00,23.2,-15.2,30.12,WSW,251,2.7,2.7,17,0.00,,---,0.00,VWS V14.01,2013-01-26 23:44:00,
2013-01-26 18:46:00,23.2,-15.2,30.12,WSW,251,3.1,3.6,17,0.00,,---,0.00,VWS V14.01,2013-01-26 23:46:00,
2013-01-26 18:48:00,23.0,-15.3,30.12,WSW,251,0.0,0.0,17,0.00,,---,0.00,VWS V14.01,2013-01-26 23:48:00,
2013-01-26 18:49:00,23.0,-15.3,30.12,WSW,251,0.0,0.0,17,0.00,,---,0.00,VWS V14.01,2013-01-26 23:49:00,
2013-01-26 18:51:00,22.8,-15.4,30.15,West,269,2.2,2.7,17,0.00,,---,0.00,VWS V14.01,2013-01-26 23:51:00,
2013-01-26 18:53:00,22.8,-15.4,30.15,West,269,2.2,2.7,17,0.00,,---,0.00,VWS V14.01,2013-01-26 23:53:00,
2013-01-26 18:54:00,22.6,-15.6,30.15,West,269,0.0,0.0,17,0.00,,---,0.00,VWS V14.01,2013-01-26 23:54:00,
2013-01-26 18:56:00,22.6,-15.6,30.15,West,269,0.0,0.0,17,0.00,,---,0.00,VWS V14.01,2013-01-26 23:56:00,
2013-01-26 18:58:00,22.5,-15.8,30.15,West,269,0.0,0.0,17,0.00,,---,0.00,VWS V14.01,2013-01-26 23:58:00,
2013-01-26 18:59:00,22.5,-15.8,30.15,West,269,0.0,0.0,17,0.00,,---,0.00,VWS V14.01,2013-01-26 23:59:00,
2013-01-26 19:01:00,22.3,-15.9,30.15,WSW,245,0.0,2.2,17,0.00,,---,0.00,VWS V14.01,2013-01-27 00:01:00,
2013-01-26 19:03:00,22.3,-15.9,30.15,WSW,245,0.0,0.0,17,0.00,,---,0.00,VWS V14.01,2013-01-27 00:03:00,
2013-01-26 19:04:00,22.3,-15.9,30.15,WSW,245,0.0,0.0,17,0.00,,---,0.00,VWS V14.01,2013-01-27 00:04:00,
2013-01-26 19:06:00,22.1,-16.0,30.15,WSW,245,0.0,0.0,17,0.00,,---,0.00,VWS V14.01,2013-01-27 00:06:00,
2013-01-26 19:09:00,21.9,-16.2,30.15,WSW,245,0.0,0.0,17,0.00,,---,0.00,VWS V14.01,2013-01-27 00:09:00,
2013-01-26 19:12:00,21.7,-16.4,30.15,WSW,245,0.0,0.0,17,0.00,,---,0.00,VWS V14.01,2013-01-27 00:12:00,
2013-01-26 19:14:00,21.7,-16.4,30.15,WSW,245,0.0,0.0,17,0.00,,---,0.00,VWS V14.01,2013-01-27 00:14:00,
2013-01-26 19:17:00,21.6,-16.5,30.15,WSW,245,0.0,0.0,17,0.00,,---,0.00,VWS V14.01,2013-01-27 00:17:00,
2013-01-26 19:19:00,21.6,-16.5,30.15,WSW,245,0.0,0.0,17,0.00,,---,0.00,VWS V14.01,2013-01-27 00:19:00,
2013-01-26 19:22:00,21.4,-16.6,30.15,WSW,245,0.0,0.0,17,0.00,,---,0.00,VWS V14.01,2013-01-27 00:22:00,
2013-01-26 19:24:00,21.2,-16.8,30.15,WSW,245,0.0,0.0,17,0.00,,---,0.00,VWS V14.01,2013-01-27 00:24:00,
2013-01-26 19:25:00,21.0,-16.9,30.15,WSW,245,0.0,0.0,17,0.00,,---,0.00,VWS V14.01,2013-01-27 00:25:00,
2013-01-26 19:27:00,21.0,-16.9,30.15,WSW,245,0.0,0.0,17,0.00,,---,0.00,VWS V14.01,2013-01-27 00:27:00,
2013-01-26 19:29:00,20.8,-17.1,30.15,WSW,245,0.0,0.0,17,0.00,,---,0.00,VWS V14.01,2013-01-27 00:29:00,
2013-01-26 19:30:00,20.8,-17.1,30.15,WSW,245,0.0,0.0,17,0.00,,---,0.00,VWS V14.01,2013-01-27 00:30:00,
2013-01-26 19:32:00,20.7,-17.2,30.15,WSW,245,0.0,0.0,17,0.00,,---,0.00,VWS V14.01,2013-01-27 00:32:00,
2013-01-26 19:34:00,20.7,-17.2,30.15,WSW,245,0.0,0.0,17,0.00,,---,0.00,VWS V14.01,2013-01-27 00:34:00,
2013-01-26 19:35:00,20.5,-17.4,30.15,WSW,245,0.0,0.0,17,0.00,,---,0.00,VWS V14.01,2013-01-27 00:35:00,
2013-01-26 19:37:00,20.5,-17.4,30.15,WSW,245,0.0,0.0,17,0.00,,---,0.00,VWS V14.01,2013-01-27 00:37:00,
2013-01-26 19:39:00,20.3,-17.5,30.15,WSW,245,2.2,2.2,17,0.00,,---,0.00,VWS V14.01,2013-01-27 00:39:00,
2013-01-26 19:40:00,20.3,-17.5,30.15,WSW,245,2.2,2.7,17,0.00,,---,0.00,VWS V14.01,2013-01-27 00:40:00,
2013-01-26 19:42:00,20.3,-17.5,30.15,WSW,245,0.0,0.0,17,0.00,,---,0.00,VWS V14.01,2013-01-27 00:42:00,
2013-01-26 19:44:00,20.1,-17.7,30.15,WSW,245,0.0,0.0,17,0.00,,---,0.00,VWS V14.01,2013-01-27 00:44:00,
2013-01-26 19:45:00,20.1,-17.7,30.15,WSW,245,0.0,0.0,17,0.00,,---,0.00,VWS V14.01,2013-01-27 00:45:00,
2013-01-26 19:47:00,19.9,-17.8,30.15,WSW,245,2.2,2.7,17,0.00,,---,0.00,VWS V14.01,2013-01-27 00:47:00,
2013-01-26 19:49:00,19.8,-18.0,30.15,WSW,245,0.0,0.0,17,0.00,,---,0.00,VWS V14.01,2013-01-27 00:49:00,
2013-01-26 19:50:00,19.6,-18.1,30.15,WSW,241,0.0,0.0,17,0.00,,---,0.00,VWS V14.01,2013-01-27 00:50:00,
2013-01-26 19:52:00,19.4,-17.2,30.15,WSW,241,0.0,0.0,18,0.00,,---,0.00,VWS V14.01,2013-01-27 00:52:00,
2013-01-26 19:54:00,19.4,-17.2,30.15,WSW,258,2.2,2.2,18,0.00,,---,0.00,VWS V14.01,2013-01-27 00:54:00,
2013-01-26 19:55:00,19.4,-17.2,30.15,WSW,258,2.2,2.2,18,0.00,,---,0.00,VWS V14.01,2013-01-27 00:55:00,
2013-01-26 19:56:00,19.4,-17.2,30.15,West,265,3.1,3.1,18,0.00,,---,0.00,VWS V14.01,2013-01-27 00:56:00,
2013-01-26 19:58:00,19.2,-17.3,30.15,West,262,2.2,2.2,18,0.00,,---,0.00,VWS V14.01,2013-01-27 00:58:00,
2013-01-26 19:59:00,19.2,-17.3,30.15,WSW,258,2.7,2.7,18,0.00,,---,0.00,VWS V14.01,2013-01-27 00:59:00,
2013-01-26 20:00:00,19.2,-17.3,30.15,WSW,258,2.7,2.7,18,0.00,,---,0.00,VWS V14.01,2013-01-27 01:00:00,
2013-01-26 20:01:00,19.2,-17.3,30.15,WSW,258,2.7,2.7,18,0.00,,---,0.00,VWS V14.01,2013-01-27 01:01:00,
2013-01-26 20:03:00,19.2,-17.3,30.15,WSW,258,0.0,0.0,18,0.00,,---,0.00,VWS V14.01,2013-01-27 01:03:00,
2013-01-26 20:05:00,19.0,-17.5,30.18,WSW,258,0.0,0.0,18,0.00,,---,0.00,VWS V14.01,2013-01-27 01:05:00,
2013-01-26 20:06:00,19.0,-17.5,30.18,WSW,258,0.0,0.0,18,0.00,,---,0.00,VWS V14.01,2013-01-27 01:06:00,
2013-01-26 20:08:00,19.0,-17.5,30.18,WNW,294,0.0,0.0,18,0.00,,---,0.00,VWS V14.01,2013-01-27 01:08:00,
2013-01-26 20:10:00,19.0,-17.5,30.18,WNW,294,2.7,3.1,18,0.00,,---,0.00,VWS V14.01,2013-01-27 01:10:00,
2013-01-26 20:11:00,19.0,-17.5,30.18,WNW,294,0.0,2.7,18,0.00,,---,0.00,VWS V14.01,2013-01-27 01:11:00,
2013-01-26 20:14:00,19.0,-17.5,30.18,WNW,294,0.0,0.0,18,0.00,,---,0.00,VWS V14.01,2013-01-27 01:14:00,
2013-01-26 20:15:00,18.9,-17.6,30.18,WNW,294,0.0,0.0,18,0.00,,---,0.00,VWS V14.01,2013-01-27 01:15:00,
2013-01-26 20:16:00,18.7,-17.8,30.18,WNW,294,0.0,0.0,18,0.00,,---,0.00,VWS V14.01,2013-01-27 01:16:00,
2013-01-26 20:19:00,18.5,-17.9,30.18,WNW,294,0.0,0.0,18,0.00,,---,0.00,VWS V14.01,2013-01-27 01:19:00,
2013-01-26 20:20:00,18.5,-17.9,30.18,WNW,294,0.0,0.0,18,0.00,,---,0.00,VWS V14.01,2013-01-27 01:20:00,
2013-01-26 20:21:00,18.5,-17.9,30.18,WNW,294,0.0,0.0,18,0.00,,---,0.00,VWS V14.01,2013-01-27 01:21:00,
2013-01-26 20:24:00,18.3,-18.1,30.18,WNW,294,0.0,2.2,18,0.00,,---,0.00,VWS V14.01,2013-01-27 01:24:00,
2013-01-26 20:25:00,18.3,-18.1,30.18,WNW,294,0.0,0.0,18,0.00,,---,0.00,VWS V14.01,2013-01-27 01:25:00,
2013-01-26 20:26:00,18.1,-18.2,30.18,WNW,294,0.0,0.0,18,0.00,,---,0.00,VWS V14.01,2013-01-27 01:26:00,
2013-01-26 20:29:00,18.1,-18.2,30.18,WNW,294,0.0,0.0,18,0.00,,---,0.00,VWS V14.01,2013-01-27 01:29:00,
2013-01-26 20:30:00,18.1,-18.2,30.18,WNW,294,0.0,0.0,18,0.00,,---,0.00,VWS V14.01,2013-01-27 01:30:00,
2013-01-26 20:31:00,18.1,-18.2,30.18,WNW,294,0.0,0.0,18,0.00,,---,0.00,VWS V14.01,2013-01-27 01:31:00,
2013-01-26 20:32:00,18.1,-18.2,30.18,WNW,294,0.0,0.0,18,0.00,,---,0.00,VWS V14.01,2013-01-27 01:32:00,
2013-01-26 20:34:00,18.0,-18.4,30.18,WNW,294,0.0,3.1,18,0.00,,---,0.00,VWS V14.01,2013-01-27 01:34:00,
2013-01-26 20:35:00,18.0,-16.3,30.18,WNW,294,4.0,4.0,20,0.00,,---,0.00,VWS V14.01,2013-01-27 01:35:00,
2013-01-26 20:36:00,17.8,-18.5,30.18,WNW,294,2.2,2.2,18,0.00,,---,0.00,VWS V14.01,2013-01-27 01:36:00,
2013-01-26 20:37:00,17.8,-16.5,30.18,WNW,294,0.0,2.2,20,0.00,,---,0.00,VWS V14.01,2013-01-27 01:37:00,
2013-01-26 20:39:00,17.8,-16.5,30.18,West,260,0.0,0.0,20,0.00,,---,0.00,VWS V14.01,2013-01-27 01:39:00,
2013-01-26 20:40:00,17.6,-15.7,30.18,West,260,0.0,0.0,21,0.00,,---,0.00,VWS V14.01,2013-01-27 01:40:00,
2013-01-26 20:41:00,17.6,-15.7,30.18,West,260,0.0,0.0,21,0.00,,---,0.00,VWS V14.01,2013-01-27 01:41:00,
2013-01-26 20:42:00,17.6,-15.7,30.18,West,260,0.0,0.0,21,0.00,,---,0.00,VWS V14.01,2013-01-27 01:42:00,
2013-01-26 20:44:00,17.6,-15.7,30.18,West,260,0.0,0.0,21,0.00,,---,0.00,VWS V14.01,2013-01-27 01:44:00,
2013-01-26 20:45:00,17.6,-15.7,30.18,West,261,0.0,0.0,21,0.00,,---,0.00,VWS V14.01,2013-01-27 01:45:00,
2013-01-26 20:47:00,17.6,-15.7,30.18,WNW,295,2.2,2.7,21,0.00,,---,0.00,VWS V14.01,2013-01-27 01:47:00,
2013-01-26 20:49:00,17.4,-15.8,30.18,WNW,295,0.0,2.7,21,0.00,,---,0.00,VWS V14.01,2013-01-27 01:49:00,
2013-01-26 20:50:00,17.4,-15.8,30.18,WNW,295,0.0,0.0,21,0.00,,---,0.00,VWS V14.01,2013-01-27 01:50:00,
2013-01-26 20:52:00,17.4,-15.8,30.18,WNW,295,0.0,0.0,21,0.00,,---,0.00,VWS V14.01,2013-01-27 01:52:00,
2013-01-26 20:54:00,17.4,-15.8,30.18,WNW,295,0.0,0.0,21,0.00,,---,0.00,VWS V14.01,2013-01-27 01:54:00,
2013-01-26 20:56:00,17.4,-15.8,30.18,WNW,295,0.0,0.0,21,0.00,,---,0.00,VWS V14.01,2013-01-27 01:56:00,
2013-01-26 20:57:00,17.4,-15.8,30.18,WNW,290,2.7,5.8,21,0.00,,---,0.00,VWS V14.01,2013-01-27 01:57:00,
2013-01-26 21:00:00,17.1,-16.1,30.18,WNW,301,0.0,0.0,21,0.00,,---,0.00,VWS V14.01,2013-01-27 02:00:00,
2013-01-26 21:01:00,16.9,-16.3,30.18,WNW,301,0.0,0.0,21,0.00,,---,0.00,VWS V14.01,2013-01-27 02:01:00,
2013-01-26 21:02:00,16.9,-16.3,30.18,WNW,301,0.0,0.0,21,0.00,,---,0.00,VWS V14.01,2013-01-27 02:02:00,
2013-01-26 21:05:00,16.7,-16.4,30.18,WNW,299,2.2,2.7,21,0.00,,---,0.00,VWS V14.01,2013-01-27 02:05:00,
2013-01-26 21:06:00,16.7,-16.4,30.18,WNW,299,2.7,2.7,21,0.00,,---,0.00,VWS V14.01,2013-01-27 02:06:00,
2013-01-26 21:07:00,16.5,-16.6,30.18,WNW,299,3.1,3.1,21,0.00,,---,0.00,VWS V14.01,2013-01-27 02:07:00,
2013-01-26 21:10:00,16.5,-16.6,30.18,WNW,292,0.0,3.6,21,0.00,,---,0.00,VWS V14.01,2013-01-27 02:10:00,
2013-01-26 21:11:00,16.5,-16.6,30.18,WNW,292,2.7,2.7,21,0.00,,---,0.00,VWS V14.01,2013-01-27 02:11:00,
2013-01-26 21:12:00,16.5,-16.6,30.18,West,267,4.0,4.0,21,0.00,,---,0.00,VWS V14.01,2013-01-27 02:12:00,
2013-01-26 21:15:00,16.5,-16.6,30.18,West,263,2.7,2.7,21,0.00,,---,0.00,VWS V14.01,2013-01-27 02:15:00,
2013-01-26 21:16:00,16.5,-16.6,30.18,West,263,2.7,2.7,21,0.00,,---,0.00,VWS V14.01,2013-01-27 02:16:00,
2013-01-26 21:17:00,16.5,-16.6,30.18,West,280,2.2,3.1,21,0.00,,---,0.00,VWS V14.01,2013-01-27 02:17:00,
2013-01-26 21:21:00,16.7,-16.4,30.21,West,280,0.0,0.0,21,0.00,,---,0.00,VWS V14.01,2013-01-27 02:21:00,
2013-01-26 21:22:00,16.7,-16.4,30.21,West,280,0.0,0.0,21,0.00,,---,0.00,VWS V14.01,2013-01-27 02:22:00,
2013-01-26 21:23:00,16.7,-16.4,30.21,West,280,0.0,0.0,21,0.00,,---,0.00,VWS V14.01,2013-01-27 02:23:00,
2013-01-26 21:26:00,16.9,-16.3,30.21,WNW,293,2.2,2.2,21,0.00,,---,0.00,VWS V14.01,2013-01-27 02:26:00,
2013-01-26 21:27:00,16.9,-16.3,30.21,WNW,293,2.2,2.7,21,0.00,,---,0.00,VWS V14.01,2013-01-27 02:27:00,
2013-01-26 21:28:00,16.9,-16.3,30.21,WNW,293,2.2,2.7,21,0.00,,---,0.00,VWS V14.01,2013-01-27 02:28:00,
2013-01-26 21:31:00,17.1,-16.1,30.21,WNW,293,0.0,0.0,21,0.00,,---,0.00,VWS V14.01,2013-01-27 02:31:00,
2013-01-26 21:32:00,17.1,-16.1,30.21,WNW,293,0.0,0.0,21,0.00,,---,0.00,VWS V14.01,2013-01-27 02:32:00,
2013-01-26 21:33:00,17.1,-16.1,30.21,WNW,290,4.9,4.9,21,0.00,,---,0.00,VWS V14.01,2013-01-27 02:33:00,
2013-01-26 21:36:00,16.9,-16.3,30.21,WNW,290,0.0,0.0,21,0.00,,---,0.00,VWS V14.01,2013-01-27 02:36:00,
2013-01-26 21:37:00,16.9,-16.3,30.21,WNW,290,0.0,0.0,21,0.00,,---,0.00,VWS V14.01,2013-01-27 02:37:00,
2013-01-26 21:38:00,16.7,-16.4,30.21,West,260,2.2,2.2,21,0.00,,---,0.00,VWS V14.01,2013-01-27 02:38:00,
2013-01-26 21:41:00,16.7,-16.4,30.21,WNW,299,0.0,0.0,21,0.00,,---,0.00,VWS V14.01,2013-01-27 02:41:00,
2013-01-26 21:42:00,16.7,-16.4,30.21,WNW,299,0.0,2.2,21,0.00,,---,0.00,VWS V14.01,2013-01-27 02:42:00,
2013-01-26 21:43:00,16.7,-16.4,30.21,WNW,298,0.0,0.0,21,0.00,,---,0.00,VWS V14.01,2013-01-27 02:43:00,
2013-01-26 21:46:00,16.5,-16.6,30.21,WSW,240,2.7,2.7,21,0.00,,---,0.00,VWS V14.01,2013-01-27 02:46:00,
2013-01-26 21:47:00,16.5,-16.6,30.21,WSW,240,2.2,2.7,21,0.00,,---,0.00,VWS V14.01,2013-01-27 02:47:00,
2013-01-26 21:48:00,16.3,-16.8,30.21,WSW,240,2.2,2.2,21,0.00,,---,0.00,VWS V14.01,2013-01-27 02:48:00,
2013-01-26 21:51:00,16.3,-16.8,30.21,WNW,290,2.2,2.2,21,0.00,,---,0.00,VWS V14.01,2013-01-27 02:51:00,
2013-01-26 21:52:00,16.2,-16.9,30.21,WNW,290,2.2,2.7,21,0.00,,---,0.00,VWS V14.01,2013-01-27 02:52:00,
2013-01-26 21:53:00,16.2,-16.9,30.21,WNW,291,2.7,4.0,21,0.00,,---,0.00,VWS V14.01,2013-01-27 02:53:00,
2013-01-26 21:56:00,16.0,-17.0,30.21,WNW,291,0.0,0.0,21,0.00,,---,0.00,VWS V14.01,2013-01-27 02:56:00,
2013-01-26 21:57:00,16.0,-17.0,30.21,WNW,291,0.0,0.0,21,0.00,,---,0.00,VWS V14.01,2013-01-27 02:57:00,
2013-01-26 21:58:00,16.0,-17.0,30.21,WNW,291,0.0,0.0,21,0.00,,---,0.00,VWS V14.01,2013-01-27 02:58:00,
2013-01-26 22:01:00,15.8,-17.2,30.21,WNW,291,0.0,0.0,21,0.00,,---,0.00,VWS V14.01,2013-01-27 03:01:00,
2013-01-26 22:03:00,15.8,-17.2,30.21,WNW,291,0.0,0.0,21,0.00,,---,0.00,VWS V14.01,2013-01-27 03:03:00,
2013-01-26 22:04:00,15.8,-17.2,30.21,WNW,291,0.0,0.0,21,0.00,,---,0.00,VWS V14.01,2013-01-27 03:04:00,
2013-01-26 22:06:00,15.8,-17.2,30.21,West,272,0.0,0.0,21,0.00,,---,0.00,VWS V14.01,2013-01-27 03:06:00,
2013-01-26 22:08:00,15.6,-17.4,30.21,West,272,0.0,0.0,21,0.00,,---,0.00,VWS V14.01,2013-01-27 03:08:00,
2013-01-26 22:09:00,15.6,-17.4,30.21,West,272,0.0,0.0,21,0.00,,---,0.00,VWS V14.01,2013-01-27 03:09:00,
2013-01-26 22:11:00,15.6,-17.4,30.21,West,272,0.0,0.0,21,0.00,,---,0.00,VWS V14.01,2013-01-27 03:11:00,
2013-01-26 22:13:00,15.4,-17.5,30.21,West,272,0.0,0.0,21,0.00,,---,0.00,VWS V14.01,2013-01-27 03:13:00,
2013-01-26 22:14:00,15.4,-17.5,30.21,West,272,0.0,0.0,21,0.00,,---,0.00,VWS V14.01,2013-01-27 03:14:00,
2013-01-26 22:16:00,15.4,-17.5,30.21,West,272,0.0,0.0,21,0.00,,---,0.00,VWS V14.01,2013-01-27 03:16:00,
2013-01-26 22:18:00,15.4,-17.5,30.21,West,272,0.0,0.0,21,0.00,,---,0.00,VWS V14.01,2013-01-27 03:18:00,
2013-01-26 22:19:00,15.4,-17.5,30.21,West,272,0.0,0.0,21,0.00,,---,0.00,VWS V14.01,2013-01-27 03:19:00,
2013-01-26 22:22:00,15.3,-17.7,30.24,West,272,0.0,0.0,21,0.00,,---,0.00,VWS V14.01,2013-01-27 03:22:00,
2013-01-26 22:23:00,15.3,-17.7,30.24,West,272,0.0,0.0,21,0.00,,---,0.00,VWS V14.01,2013-01-27 03:23:00,
2013-01-26 22:24:00,15.3,-17.7,30.24,West,272,0.0,0.0,21,0.00,,---,0.00,VWS V14.01,2013-01-27 03:24:00,
2013-01-26 22:27:00,15.3,-17.7,30.24,West,272,0.0,0.0,21,0.00,,---,0.00,VWS V14.01,2013-01-27 03:27:00,
2013-01-26 22:28:00,15.3,-17.7,30.24,West,272,0.0,0.0,21,0.00,,---,0.00,VWS V14.01,2013-01-27 03:28:00,
2013-01-26 22:29:00,15.1,-17.8,30.24,West,272,0.0,0.0,21,0.00,,---,0.00,VWS V14.01,2013-01-27 03:29:00,
2013-01-26 22:32:00,15.1,-17.8,30.24,West,272,0.0,0.0,21,0.00,,---,0.00,VWS V14.01,2013-01-27 03:32:00,
2013-01-26 22:33:00,15.1,-17.8,30.24,West,272,0.0,0.0,21,0.00,,---,0.00,VWS V14.01,2013-01-27 03:33:00,
2013-01-26 22:35:00,14.9,-18.0,30.24,West,272,0.0,0.0,21,0.00,,---,0.00,VWS V14.01,2013-01-27 03:35:00,
2013-01-26 22:37:00,14.9,-18.0,30.24,West,272,0.0,0.0,21,0.00,,---,0.00,VWS V14.01,2013-01-27 03:37:00,
2013-01-26 22:38:00,14.9,-18.0,30.24,West,272,0.0,0.0,21,0.00,,---,0.00,VWS V14.01,2013-01-27 03:38:00,
2013-01-26 22:39:00,14.9,-18.0,30.24,West,272,0.0,0.0,21,0.00,,---,0.00,VWS V14.01,2013-01-27 03:39:00,
2013-01-26 22:40:00,14.9,-18.0,30.24,West,272,0.0,0.0,21,0.00,,---,0.00,VWS V14.01,2013-01-27 03:40:00,
2013-01-26 22:42:00,14.7,-18.1,30.24,West,272,0.0,0.0,21,0.00,,---,0.00,VWS V14.01,2013-01-27 03:42:00,
2013-01-26 22:43:00,14.5,-18.3,30.24,West,272,0.0,0.0,21,0.00,,---,0.00,VWS V14.01,2013-01-27 03:43:00,
2013-01-26 22:44:00,14.5,-18.3,30.24,West,272,0.0,0.0,21,0.00,,---,0.00,VWS V14.01,2013-01-27 03:44:00,
2013-01-26 22:45:00,14.5,-18.3,30.24,West,272,0.0,0.0,21,0.00,,---,0.00,VWS V14.01,2013-01-27 03:45:00,
2013-01-26 22:47:00,14.5,-18.3,30.24,West,272,0.0,0.0,21,0.00,,---,0.00,VWS V14.01,2013-01-27 03:47:00,
2013-01-26 22:48:00,14.5,-18.3,30.24,West,272,0.0,0.0,21,0.00,,---,0.00,VWS V14.01,2013-01-27 03:48:00,
2013-01-26 22:49:00,14.5,-18.3,30.24,West,272,0.0,0.0,21,0.00,,---,0.00,VWS V14.01,2013-01-27 03:49:00,
2013-01-26 22:50:00,14.5,-18.3,30.24,West,272,0.0,0.0,21,0.00,,---,0.00,VWS V14.01,2013-01-27 03:50:00,
2013-01-26 22:52:00,14.4,-18.4,30.24,West,272,0.0,0.0,21,0.00,,---,0.00,VWS V14.01,2013-01-27 03:52:00,
2013-01-26 22:53:00,14.4,-18.4,30.24,West,272,0.0,0.0,21,0.00,,---,0.00,VWS V14.01,2013-01-27 03:53:00,
2013-01-26 22:54:00,14.4,-18.4,30.24,West,272,0.0,0.0,21,0.00,,---,0.00,VWS V14.01,2013-01-27 03:54:00,
2013-01-26 22:55:00,14.4,-18.4,30.24,West,272,0.0,0.0,21,0.00,,---,0.00,VWS V14.01,2013-01-27 03:55:00,
2013-01-26 22:57:00,14.2,-18.6,30.24,West,272,0.0,0.0,21,0.00,,---,0.00,VWS V14.01,2013-01-27 03:57:00,
2013-01-26 22:58:00,14.2,-18.6,30.24,West,272,0.0,0.0,21,0.00,,---,0.00,VWS V14.01,2013-01-27 03:58:00,
2013-01-26 22:59:00,14.2,-18.6,30.24,West,272,0.0,0.0,21,0.00,,---,0.00,VWS V14.01,2013-01-27 03:59:00,
2013-01-26 23:00:00,14.2,-18.6,30.24,West,272,0.0,0.0,21,0.00,,---,0.00,VWS V14.01,2013-01-27 04:00:00,
2013-01-26 23:02:00,14.0,-17.8,30.24,West,272,0.0,0.0,22,0.00,,---,0.00,VWS V14.01,2013-01-27 04:02:00,
2013-01-26 23:04:00,13.8,-18.0,30.24,West,272,0.0,0.0,22,0.00,,---,0.00,VWS V14.01,2013-01-27 04:04:00,
2013-01-26 23:06:00,13.8,-18.0,30.24,West,272,0.0,0.0,22,0.00,,---,0.00,VWS V14.01,2013-01-27 04:06:00,
2013-01-26 23:07:00,13.6,-18.1,30.24,West,272,0.0,0.0,22,0.00,,---,0.00,VWS V14.01,2013-01-27 04:07:00,
2013-01-26 23:09:00,13.6,-18.1,30.24,West,272,0.0,0.0,22,0.00,,---,0.00,VWS V14.01,2013-01-27 04:09:00,
2013-01-26 23:11:00,13.5,-18.3,30.24,West,272,0.0,0.0,22,0.00,,---,0.00,VWS V14.01,2013-01-27 04:11:00,
2013-01-26 23:12:00,13.3,-18.4,30.24,West,272,0.0,0.0,22,0.00,,---,0.00,VWS V14.01,2013-01-27 04:12:00,
2013-01-26 23:14:00,13.3,-18.4,30.24,West,272,0.0,0.0,22,0.00,,---,0.00,VWS V14.01,2013-01-27 04:14:00,
2013-01-26 23:16:00,12.9,-18.8,30.24,West,272,0.0,0.0,22,0.00,,---,0.00,VWS V14.01,2013-01-27 04:16:00,
2013-01-26 23:17:00,12.9,-18.8,30.24,West,272,0.0,0.0,22,0.00,,---,0.00,VWS V14.01,2013-01-27 04:17:00,
2013-01-26 23:19:00,12.7,-18.9,30.24,West,272,0.0,0.0,22,0.00,,---,0.00,VWS V14.01,2013-01-27 04:19:00,
2013-01-26 23:21:00,12.7,-18.9,30.24,West,272,0.0,0.0,22,0.00,,---,0.00,VWS V14.01,2013-01-27 04:21:00,
2013-01-26 23:22:00,12.7,-18.9,30.24,West,272,0.0,0.0,22,0.00,,---,0.00,VWS V14.01,2013-01-27 04:22:00,
2013-01-26 23:24:00,12.6,-19.1,30.24,West,272,0.0,0.0,22,0.00,,---,0.00,VWS V14.01,2013-01-27 04:24:00,
2013-01-26 23:26:00,12.6,-19.1,30.24,West,272,0.0,0.0,22,0.00,,---,0.00,VWS V14.01,2013-01-27 04:26:00,
2013-01-26 23:27:00,12.6,-19.1,30.24,West,272,0.0,0.0,22,0.00,,---,0.00,VWS V14.01,2013-01-27 04:27:00,
2013-01-26 23:29:00,12.2,-19.4,30.24,West,272,0.0,0.0,22,0.00,,---,0.00,VWS V14.01,2013-01-27 04:29:00,
2013-01-26 23:31:00,12.2,-19.4,30.24,West,272,0.0,0.0,22,0.00,,---,0.00,VWS V14.01,2013-01-27 04:31:00,
2013-01-26 23:32:00,12.2,-19.4,30.24,West,272,0.0,0.0,22,0.00,,---,0.00,VWS V14.01,2013-01-27 04:32:00,
2013-01-26 23:35:00,12.0,-19.5,30.24,West,272,0.0,0.0,22,0.00,,---,0.00,VWS V14.01,2013-01-27 04:35:00,
2013-01-26 23:36:00,12.0,-19.5,30.24,West,272,0.0,0.0,22,0.00,,---,0.00,VWS V14.01,2013-01-27 04:36:00,
2013-01-26 23:37:00,12.0,-19.5,30.24,West,272,0.0,0.0,22,0.00,,---,0.00,VWS V14.01,2013-01-27 04:37:00,
2013-01-26 23:40:00,12.0,-19.5,30.24,West,271,0.0,0.0,22,0.00,,---,0.00,VWS V14.01,2013-01-27 04:40:00,
2013-01-26 23:41:00,11.8,-19.7,30.24,West,271,0.0,0.0,22,0.00,,---,0.00,VWS V14.01,2013-01-27 04:41:00,
2013-01-26 23:42:00,11.8,-19.7,30.24,West,271,0.0,0.0,22,0.00,,---,0.00,VWS V14.01,2013-01-27 04:42:00,
2013-01-26 23:45:00,11.8,-19.7,30.24,West,271,0.0,0.0,22,0.00,,---,0.00,VWS V14.01,2013-01-27 04:45:00,
2013-01-26 23:46:00,11.8,-19.7,30.24,West,271,0.0,0.0,22,0.00,,---,0.00,VWS V14.01,2013-01-27 04:46:00,
2013-01-26 23:47:00,11.7,-19.8,30.24,West,271,0.0,0.0,22,0.00,,---,0.00,VWS V14.01,2013-01-27 04:47:00,
2013-01-26 23:50:00,11.7,-19.8,30.24,West,271,0.0,0.0,22,0.00,,---,0.00,VWS V14.01,2013-01-27 04:50:00,
2013-01-26 23:51:00,11.7,-19.8,30.24,West,271,0.0,0.0,22,0.00,,---,0.00,VWS V14.01,2013-01-27 04:51:00,
2013-01-26 23:53:00,11.7,-19.8,30.24,West,271,0.0,0.0,22,0.00,,---,0.00,VWS V14.01,2013-01-27 04:53:00,
2013-01-26 23:55:00,11.7,-19.8,30.24,West,271,0.0,0.0,22,0.00,,---,0.00,VWS V14.01,2013-01-27 04:55:00,
2013-01-26 23:56:00,11.5,-20.0,30.27,West,278,0.0,0.0,22,0.00,,---,0.00,VWS V14.01,2013-01-27 04:56:00,
2013-01-26 23:58:00,11.5,-20.0,30.27,West,278,0.0,0.0,22,0.00,,---,0.00,VWS V14.01,2013-01-27 04:58:00,